CCA876 LFPG-ZBAA

Flight info

Callsign CCA876
Flight time N/A
Altitude 33000
Route LANVI DCT BEGAR DCT TRA DCT GAMSA DCT GEDSO DCT VALLU DCT LAKIK/N0483F350 DCT MAVIT DCT UBOGU DCT LUGEB DCT UDROS UN743 GAKSU UT310 SIN UM860 CRM UM11 REBLO M11 MATAL T916 SUBUT M747 LUSAL N199 RASAM L88 METKA B476 TIMGA A480 OTBOR/K0893F350 N147 EVTEV/K0889F370 N147 TRK Z621 ARBOL M610 RULAD/K0882S1130 A343 POSOT B215 FKG W188 LIKMI W270 POPIB/K0906S1190 W270 DKO W69 GUVBA GUVBA9Y
Aircraft B77W/H-SDE1E2E3FGHIJ2J3J4J5M1RWXY/LB1D1

Departure

Time 2026-02-20 22:39
Airport Charles de Gaulle International Airport (LFPG)

Arrival

Time N/A
Airport Beijing Capital International Airport (ZBAA)
Time Latitude Longitude Altitude Speed Heading
2026-02-20 22:07 49.01725 2.54187 366 ft 0 kts 229°
2026-02-20 22:21 49.01726 2.54189 359 ft 1 kts 229°
2026-02-20 22:21 49.01738 2.54208 368 ft 3 kts 225°
2026-02-20 22:21 49.01751 2.54231 366 ft 3 kts 226°
2026-02-20 22:21 49.01766 2.54250 366 ft 3 kts 200°
2026-02-20 22:22 49.01784 2.54254 366 ft 3 kts 166°
2026-02-20 22:22 49.01795 2.54249 366 ft 2 kts 156°
2026-02-20 22:22 49.01809 2.54236 367 ft 3 kts 119°
2026-02-20 22:22 49.01814 2.54208 365 ft 3 kts 90°
2026-02-20 22:23 49.01813 2.54178 365 ft 3 kts 84°
2026-02-20 22:23 49.01812 2.54155 364 ft 1 kts 85°
2026-02-20 22:24 49.01812 2.54159 364 ft 3 kts 85°
2026-02-20 22:24 49.01817 2.54247 367 ft 15 kts 85°
2026-02-20 22:24 49.01828 2.54459 365 ft 21 kts 86°
2026-02-20 22:25 49.01835 2.54602 359 ft 5 kts 85°
2026-02-20 22:25 49.01837 2.54635 359 ft 0 kts 86°
2026-02-20 22:26 49.01838 2.54667 364 ft 4 kts 86°
2026-02-20 22:26 49.01842 2.54747 361 ft 16 kts 85°
2026-02-20 22:26 49.01874 2.55306 359 ft 26 kts 85°
2026-02-20 22:27 49.01887 2.55565 365 ft 22 kts 85°
2026-02-20 22:27 49.01900 2.55798 363 ft 22 kts 85°
2026-02-20 22:27 49.01912 2.56031 359 ft 22 kts 86°
2026-02-20 22:27 49.01924 2.56264 360 ft 22 kts 85°
2026-02-20 22:28 49.01940 2.56559 359 ft 31 kts 85°
2026-02-20 22:28 49.01958 2.56879 361 ft 30 kts 85°
2026-02-20 22:28 49.01974 2.57197 364 ft 30 kts 86°
2026-02-20 22:28 49.01990 2.57514 367 ft 30 kts 85°
2026-02-20 22:29 49.01982 2.57826 366 ft 30 kts 115°
2026-02-20 22:29 49.01814 2.57988 367 ft 30 kts 175°
2026-02-20 22:29 49.01606 2.58016 362 ft 30 kts 176°
2026-02-20 22:29 49.01400 2.58041 359 ft 30 kts 175°
2026-02-20 22:30 49.01192 2.58067 362 ft 30 kts 175°
2026-02-20 22:30 49.01005 2.58088 361 ft 14 kts 175°
2026-02-20 22:30 49.00925 2.58149 365 ft 14 kts 118°
2026-02-20 22:30 49.00918 2.58293 365 ft 14 kts 85°
2026-02-20 22:31 49.00929 2.58491 364 ft 24 kts 85°
2026-02-20 22:31 49.00942 2.58744 361 ft 24 kts 85°
2026-02-20 22:31 49.00966 2.58995 365 ft 24 kts 75°
2026-02-20 22:31 49.00992 2.59245 359 ft 24 kts 85°
2026-02-20 22:32 49.01003 2.59439 364 ft 13 kts 85°
2026-02-20 22:32 49.00972 2.59527 365 ft 9 kts 165°
2026-02-20 22:32 49.00894 2.59540 365 ft 18 kts 175°
2026-02-20 22:32 49.00704 2.59565 359 ft 35 kts 175°
2026-02-20 22:33 49.00465 2.59593 362 ft 33 kts 175°
2026-02-20 22:33 49.00246 2.59620 359 ft 26 kts 175°
2026-02-20 22:33 49.00154 2.59631 366 ft 8 kts 175°
2026-02-20 22:33 49.00146 2.59632 367 ft 0 kts 175°
2026-02-20 22:35 49.00095 2.59650 366 ft 12 kts 147°
2026-02-20 22:35 49.00087 2.59753 364 ft 13 kts 83°
2026-02-20 22:36 49.00098 2.59958 360 ft 21 kts 86°
2026-02-20 22:36 49.00109 2.60143 359 ft 12 kts 85°
2026-02-20 22:36 49.00059 2.60227 366 ft 12 kts 165°
2026-02-20 22:36 48.99977 2.60241 364 ft 12 kts 174°
2026-02-20 22:37 48.99897 2.60213 363 ft 12 kts 212°
2026-02-20 22:37 48.99851 2.60154 365 ft 8 kts 222°
2026-02-20 22:37 48.99830 2.60094 365 ft 5 kts 253°
2026-02-20 22:37 48.99828 2.60077 365 ft 0 kts 261°
2026-02-20 22:38 48.99820 2.59985 359 ft 33 kts 262°
2026-02-20 22:39 48.99778 2.59185 362 ft 117 kts 265°
2026-02-20 22:39 48.99691 2.57574 372 ft 181 kts 264°
2026-02-20 22:39 48.99594 2.55634 975 ft 185 kts 265°
2026-02-20 22:39 48.99514 2.53715 1867 ft 182 kts 266°
2026-02-20 22:40 48.99422 2.51791 2634 ft 184 kts 269°
2026-02-20 22:40 48.99325 2.49745 2976 ft 202 kts 269°
2026-02-20 22:40 48.99241 2.47557 3529 ft 211 kts 270°
2026-02-20 22:40 48.99148 2.45334 4324 ft 210 kts 269°
2026-02-20 22:41 48.99007 2.43075 4835 ft 220 kts 269°
2026-02-20 22:41 48.98848 2.40665 5374 ft 231 kts 268°
2026-02-20 22:41 48.98695 2.38221 6203 ft 232 kts 269°
2026-02-20 22:42 48.98401 2.33318 7688 ft 236 kts 269°
2026-02-20 22:42 48.98252 2.30813 8438 ft 238 kts 269°
2026-02-20 22:42 48.98107 2.28296 9205 ft 239 kts 270°
2026-02-20 22:42 48.97960 2.25760 9945 ft 240 kts 268°
2026-02-20 22:43 48.97416 2.23292 10428 ft 258 kts 246°
2026-02-20 22:43 48.96234 2.21082 10645 ft 290 kts 231°
2026-02-20 22:43 48.94468 2.19215 10819 ft 327 kts 215°
2026-02-20 22:43 48.92151 2.18190 10971 ft 369 kts 193°
2026-02-20 22:44 48.89491 2.18477 11440 ft 398 kts 173°
2026-02-20 22:44 48.86865 2.20069 12132 ft 416 kts 154°
2026-02-20 22:44 48.84619 2.22832 12918 ft 428 kts 133°
2026-02-20 22:44 48.83052 2.26720 13725 ft 436 kts 109°
2026-02-20 22:45 48.82500 2.31233 14463 ft 435 kts 86°
2026-02-20 22:45 48.82784 2.35793 15213 ft 433 kts 75°
2026-02-20 22:45 48.83387 2.40280 15998 ft 434 kts 71°
2026-02-20 22:45 48.84047 2.44768 16792 ft 438 kts 71°
2026-02-20 22:46 48.84657 2.49276 17536 ft 443 kts 72°
2026-02-20 22:46 48.85205 2.53905 18300 ft 448 kts 73°
2026-02-20 22:46 48.85694 2.58608 18987 ft 453 kts 74°
2026-02-20 22:46 48.86143 2.63381 19653 ft 457 kts 75°
2026-02-20 22:47 48.86563 2.68139 20342 ft 460 kts 75°
2026-02-20 22:47 48.86980 2.72989 20931 ft 466 kts 75°
2026-02-20 22:47 48.87402 2.77931 21497 ft 471 kts 75°
2026-02-20 22:47 48.87683 2.81209 21878 ft 475 kts 75°
2026-02-20 22:48 48.88251 2.87869 22637 ft 481 kts 75°
2026-02-20 22:48 48.88542 2.91281 23025 ft 483 kts 75°
2026-02-20 22:48 48.88972 2.96320 23596 ft 488 kts 75°
2026-02-20 22:48 48.89409 3.01466 24095 ft 492 kts 75°
2026-02-20 22:49 48.89846 3.06647 24584 ft 496 kts 75°
2026-02-20 22:49 48.90284 3.11869 25046 ft 500 kts 75°
2026-02-20 22:49 48.90725 3.17142 25501 ft 503 kts 75°
2026-02-20 22:49 48.91160 3.22379 25967 ft 506 kts 75°
2026-02-20 22:50 48.91599 3.27711 26465 ft 509 kts 76°
2026-02-20 22:50 48.91837 3.33144 26894 ft 520 kts 84°
2026-02-20 22:50 48.91591 3.38692 27313 ft 530 kts 92°
2026-02-20 22:50 48.90969 3.44187 27743 ft 537 kts 98°
2026-02-20 22:51 48.89923 3.49693 28148 ft 543 kts 104°
2026-02-20 22:51 48.88703 3.55170 28496 ft 549 kts 105°
2026-02-20 22:51 48.87438 3.60675 28809 ft 553 kts 105°
2026-02-20 22:51 48.86159 3.66210 29159 ft 556 kts 105°
2026-02-20 22:52 48.84881 3.71779 29538 ft 558 kts 105°
2026-02-20 22:52 48.83631 3.77284 29909 ft 560 kts 105°
2026-02-20 22:52 48.82369 3.82892 30327 ft 559 kts 105°
2026-02-20 22:52 48.81115 3.88482 30782 ft 557 kts 104°
2026-02-20 22:53 48.79871 3.94030 31315 ft 553 kts 104°
2026-02-20 22:53 48.78633 3.99545 31859 ft 549 kts 105°
2026-02-20 22:53 48.77429 4.04894 32321 ft 546 kts 105°
2026-02-20 22:53 48.76196 4.10355 32722 ft 545 kts 105°
2026-02-20 22:54 48.74981 4.15722 33096 ft 544 kts 105°
2026-02-20 22:54 48.73743 4.21178 33232 ft 548 kts 105°
2026-02-20 22:54 48.71250 4.32108 33237 ft 545 kts 105°
2026-02-20 22:55 48.68759 4.42963 33248 ft 548 kts 105°
2026-02-20 22:55 48.66246 4.53868 33242 ft 552 kts 105°
2026-02-20 22:56 48.63698 4.64864 33237 ft 554 kts 105°
2026-02-20 22:56 48.61146 4.75818 33267 ft 553 kts 105°
2026-02-20 22:57 48.58585 4.86749 33265 ft 551 kts 106°
2026-02-20 22:57 48.56034 4.97588 33263 ft 549 kts 106°
2026-02-20 22:58 48.53496 5.08319 33232 ft 547 kts 105°
2026-02-20 22:58 48.50931 5.19119 33256 ft 546 kts 106°
2026-02-20 22:59 48.48377 5.29820 33252 ft 545 kts 106°
2026-02-20 22:59 48.45802 5.40549 33259 ft 543 kts 106°
2026-02-20 23:00 48.43227 5.51227 33261 ft 542 kts 106°
2026-02-20 23:00 48.40644 5.61892 33286 ft 542 kts 107°
2026-02-20 23:01 48.38051 5.72543 33280 ft 541 kts 107°
2026-02-20 23:01 48.35450 5.83171 33279 ft 540 kts 107°
2026-02-20 23:02 48.32860 5.93705 33288 ft 540 kts 107°
2026-02-20 23:02 48.30271 6.04191 33318 ft 539 kts 108°
2026-02-20 23:03 48.27653 6.14745 33293 ft 537 kts 108°
2026-02-20 23:03 48.25053 6.25165 33292 ft 534 kts 108°
2026-02-20 23:04 48.22440 6.35605 33284 ft 534 kts 108°
2026-02-20 23:04 48.19812 6.46057 33316 ft 534 kts 109°
2026-02-20 23:05 48.17202 6.56381 33283 ft 532 kts 109°
2026-02-20 23:05 48.14569 6.66743 33294 ft 530 kts 109°
2026-02-20 23:06 48.11943 6.77038 33295 ft 528 kts 109°
2026-02-20 23:06 48.09314 6.87303 33325 ft 527 kts 110°
2026-02-20 23:07 48.06701 6.97453 33296 ft 524 kts 110°
2026-02-20 23:07 48.04096 7.07530 33296 ft 522 kts 110°
2026-02-20 23:08 48.01486 7.17582 33298 ft 521 kts 110°
2026-02-20 23:08 47.98859 7.27658 33280 ft 519 kts 111°
2026-02-20 23:09 47.96236 7.37669 33296 ft 517 kts 111°
2026-02-20 23:09 47.93602 7.47687 33301 ft 516 kts 111°
2026-02-20 23:10 47.90982 7.57610 33316 ft 516 kts 111°
2026-02-20 23:10 47.88415 7.67611 33346 ft 515 kts 110°
2026-02-20 23:11 47.85935 7.77548 33322 ft 514 kts 110°
2026-02-20 23:11 47.83427 7.87525 33329 ft 513 kts 110°
2026-02-20 23:12 47.80910 7.97432 33334 ft 513 kts 111°
2026-02-20 23:12 47.78407 8.07228 33328 ft 512 kts 111°
2026-02-20 23:13 47.75867 8.17126 33347 ft 512 kts 111°
2026-02-20 23:13 47.73332 8.26971 33341 ft 512 kts 111°
2026-02-20 23:14 47.70774 8.36866 33346 ft 513 kts 111°
2026-02-20 23:14 47.68236 8.46718 33352 ft 513 kts 109°
2026-02-20 23:15 47.65933 8.56775 33341 ft 513 kts 107°
2026-02-20 23:15 47.63716 8.66843 33348 ft 513 kts 107°
2026-02-20 23:16 47.61470 8.76821 33344 ft 512 kts 108°
2026-02-20 23:16 47.59173 8.86832 33351 ft 511 kts 109°
2026-02-20 23:17 47.56888 8.96714 33333 ft 509 kts 109°
2026-02-20 23:17 47.54618 9.06498 33320 ft 507 kts 109°
2026-02-20 23:18 47.52324 9.16351 33325 ft 505 kts 109°
2026-02-20 23:18 47.50040 9.26120 33336 ft 504 kts 110°
2026-02-20 23:19 47.47737 9.35921 33321 ft 503 kts 110°
2026-02-20 23:19 47.45435 9.45680 33346 ft 502 kts 110°
2026-02-20 23:20 47.43142 9.55363 33344 ft 502 kts 110°
2026-02-20 23:20 47.40863 9.65123 33348 ft 502 kts 108°
2026-02-20 23:21 47.39327 9.75192 33353 ft 502 kts 102°
2026-02-20 23:21 47.37988 9.85288 33331 ft 503 kts 102°
2026-02-20 23:22 47.36612 9.95414 33332 ft 503 kts 102°
2026-02-20 23:22 47.35218 10.05408 33315 ft 504 kts 102°
2026-02-20 23:23 47.33783 10.15555 33311 ft 504 kts 102°
2026-02-20 23:23 47.32341 10.25686 33298 ft 504 kts 102°
2026-02-20 23:24 47.30906 10.35715 33298 ft 503 kts 102°
2026-02-20 23:24 47.29450 10.45815 33296 ft 503 kts 102°
2026-02-20 23:25 47.27985 10.55922 33297 ft 502 kts 102°
2026-02-20 23:25 47.26526 10.65913 33286 ft 502 kts 102°
2026-02-20 23:26 47.25049 10.75977 33273 ft 501 kts 102°
2026-02-20 23:27 47.22828 10.90969 33284 ft 500 kts 101°
2026-02-20 23:27 47.21353 11.00851 33277 ft 500 kts 102°
2026-02-20 23:28 47.19854 11.10836 33286 ft 499 kts 102°
2026-02-20 23:28 47.18344 11.20818 33288 ft 500 kts 101°
2026-02-20 23:29 47.16837 11.30725 33317 ft 499 kts 101°
2026-02-20 23:29 47.15314 11.40673 33323 ft 497 kts 101°
2026-02-20 23:30 47.13797 11.50520 33309 ft 496 kts 102°
2026-02-20 23:30 47.12267 11.60399 33310 ft 495 kts 102°
2026-02-20 23:31 47.10736 11.70218 33279 ft 495 kts 102°
2026-02-20 23:31 47.09190 11.80087 33258 ft 494 kts 102°
2026-02-20 23:32 47.07545 11.89895 33259 ft 495 kts 105°
2026-02-20 23:32 47.05529 11.99488 33265 ft 494 kts 106°
2026-02-20 23:33 47.03481 12.09003 33245 ft 495 kts 106°
2026-02-20 23:33 47.01428 12.18587 33246 ft 495 kts 106°
2026-02-20 23:34 46.99368 12.28235 33251 ft 495 kts 106°
2026-02-20 23:34 46.97304 12.37883 33257 ft 495 kts 106°
2026-02-20 23:35 46.95249 12.47441 33242 ft 495 kts 106°
2026-02-20 23:35 46.93170 12.57056 33233 ft 494 kts 106°
2026-02-20 23:36 46.91101 12.66584 33235 ft 493 kts 106°
2026-02-20 23:36 46.89015 12.76148 33226 ft 492 kts 106°
2026-02-20 23:37 46.86934 12.85641 33227 ft 492 kts 106°
2026-02-20 23:37 46.84838 12.95165 33231 ft 491 kts 106°
2026-02-20 23:38 46.82762 13.04551 33231 ft 492 kts 106°
2026-02-20 23:38 46.81009 13.12444 33215 ft 492 kts 106°
2026-02-20 23:39 46.78890 13.21942 33231 ft 491 kts 106°
2026-02-20 23:39 46.76766 13.31431 33198 ft 490 kts 106°
2026-02-20 23:40 46.74651 13.40830 33216 ft 490 kts 106°
2026-02-20 23:40 46.72514 13.50287 33214 ft 491 kts 106°
2026-02-20 23:41 46.70382 13.59678 33232 ft 491 kts 105°
2026-02-20 23:41 46.68225 13.69139 33230 ft 490 kts 106°
2026-02-20 23:42 46.66064 13.78577 33232 ft 490 kts 106°
2026-02-20 23:42 46.63912 13.87932 33234 ft 489 kts 106°
2026-02-20 23:43 46.61742 13.97327 33241 ft 489 kts 105°
2026-02-20 23:43 46.59613 14.06502 33256 ft 488 kts 106°
2026-02-20 23:44 46.57434 14.15857 33263 ft 488 kts 106°
2026-02-20 23:44 46.55244 14.25216 33262 ft 488 kts 106°
2026-02-20 23:45 46.53065 14.34487 33274 ft 487 kts 105°
2026-02-20 23:45 46.50868 14.43800 33255 ft 487 kts 105°
2026-02-20 23:46 46.48664 14.53098 33250 ft 485 kts 105°
2026-02-20 23:46 46.46473 14.62307 33263 ft 485 kts 105°
2026-02-20 23:47 46.44260 14.71569 33249 ft 485 kts 105°
2026-02-20 23:47 46.42039 14.80824 33240 ft 485 kts 105°
2026-02-20 23:48 46.39818 14.90037 33255 ft 483 kts 105°
2026-02-20 23:48 46.37594 14.99234 33256 ft 483 kts 105°
2026-02-20 23:49 46.35396 15.08286 33267 ft 484 kts 105°
2026-02-20 23:49 46.33165 15.17431 33263 ft 484 kts 105°
2026-02-20 23:50 46.30908 15.26647 33261 ft 485 kts 105°
2026-02-20 23:50 46.28650 15.35855 33260 ft 485 kts 105°
2026-02-20 23:51 46.26475 15.45029 33269 ft 485 kts 104°
2026-02-20 23:51 46.24307 15.54267 33266 ft 484 kts 104°
2026-02-20 23:52 46.22130 15.63479 33272 ft 484 kts 104°
2026-02-20 23:52 46.19941 15.72667 33274 ft 483 kts 104°
2026-02-20 23:53 46.17757 15.81788 33274 ft 483 kts 104°
2026-02-20 23:53 46.15545 15.90985 33276 ft 483 kts 104°
2026-02-20 23:54 46.13353 16.00064 33275 ft 483 kts 104°
2026-02-20 23:54 46.11151 16.09147 33302 ft 484 kts 104°
2026-02-20 23:55 46.08919 16.18314 33282 ft 483 kts 104°
2026-02-20 23:55 46.06700 16.27390 33268 ft 482 kts 105°
2026-02-20 23:56 46.04467 16.36489 33280 ft 481 kts 105°
2026-02-20 23:56 46.02231 16.45564 33306 ft 480 kts 105°
2026-02-20 23:57 46.00005 16.54563 33278 ft 479 kts 105°
2026-02-20 23:57 45.97781 16.63518 33277 ft 478 kts 105°
2026-02-20 23:58 45.95534 16.72527 33278 ft 478 kts 105°
2026-02-20 23:58 45.93300 16.81455 33302 ft 477 kts 105°
2026-02-20 23:59 45.91046 16.90424 33283 ft 477 kts 105°
2026-02-20 23:59 45.88784 16.99390 33274 ft 476 kts 105°
2026-02-21 00:00 45.86547 17.08219 33281 ft 476 kts 105°
2026-02-21 00:00 45.84290 17.17096 33273 ft 476 kts 105°
2026-02-21 00:01 45.82012 17.26017 33276 ft 475 kts 106°
2026-02-21 00:01 45.79731 17.34923 33266 ft 475 kts 106°
2026-02-21 00:02 45.77462 17.43747 33266 ft 474 kts 106°
2026-02-21 00:02 45.75173 17.52614 33284 ft 474 kts 106°
2026-02-21 00:03 45.72892 17.61412 33272 ft 473 kts 106°
2026-02-21 00:03 45.70590 17.70261 33259 ft 473 kts 107°
2026-02-21 00:04 45.68288 17.79076 33255 ft 472 kts 107°
2026-02-21 00:04 45.65982 17.87873 33279 ft 472 kts 107°
2026-02-21 00:05 45.63686 17.96608 33247 ft 471 kts 107°
2026-02-21 00:05 45.61401 18.05265 33246 ft 470 kts 106°
2026-02-21 00:06 45.59679 18.14228 33288 ft 465 kts 95°
2026-02-21 00:06 45.59240 18.18757 33522 ft 466 kts 94°
2026-02-21 00:06 45.58811 18.23338 33849 ft 465 kts 94°
2026-02-21 00:06 45.58373 18.27939 34194 ft 465 kts 94°
2026-02-21 00:07 45.57929 18.32520 34450 ft 465 kts 94°
2026-02-21 00:07 45.57478 18.37097 34647 ft 466 kts 94°
2026-02-21 00:07 45.57025 18.41637 34830 ft 468 kts 94°
2026-02-21 00:07 45.56561 18.46237 35034 ft 468 kts 95°
2026-02-21 00:08 45.56091 18.50860 35146 ft 470 kts 95°
2026-02-21 00:08 45.55141 18.60145 35228 ft 471 kts 95°
2026-02-21 00:09 45.54189 18.69360 35223 ft 472 kts 96°
2026-02-21 00:09 45.53222 18.78664 35240 ft 474 kts 96°
2026-02-21 00:10 45.52246 18.87979 35243 ft 475 kts 96°
2026-02-21 00:10 45.51264 18.97274 35235 ft 476 kts 96°
2026-02-21 00:11 45.50285 19.06473 35234 ft 476 kts 97°
2026-02-21 00:11 45.49286 19.15782 35233 ft 477 kts 97°
2026-02-21 00:12 45.48280 19.25078 35219 ft 477 kts 97°
2026-02-21 00:12 45.47259 19.34442 35215 ft 477 kts 97°
2026-02-21 00:13 45.46232 19.43793 35207 ft 477 kts 97°
2026-02-21 00:13 45.45196 19.53144 35200 ft 477 kts 97°
2026-02-21 00:14 45.44159 19.62438 35200 ft 477 kts 97°
2026-02-21 00:14 45.43108 19.71785 35203 ft 477 kts 97°
2026-02-21 00:15 45.42052 19.81110 35200 ft 477 kts 98°
2026-02-21 00:15 45.40994 19.90378 35201 ft 477 kts 98°
2026-02-21 00:16 45.39920 19.99721 35191 ft 477 kts 98°
2026-02-21 00:16 45.38858 20.08881 35188 ft 477 kts 98°
2026-02-21 00:17 45.37771 20.18200 35198 ft 477 kts 98°
2026-02-21 00:17 45.36677 20.27505 35186 ft 477 kts 98°
2026-02-21 00:18 45.35584 20.36739 35181 ft 476 kts 99°
2026-02-21 00:18 45.34476 20.46030 35184 ft 475 kts 99°
2026-02-21 00:19 45.33369 20.55247 35188 ft 475 kts 99°
2026-02-21 00:19 45.32248 20.64509 35188 ft 475 kts 99°
2026-02-21 00:20 45.31122 20.73753 35188 ft 474 kts 99°
2026-02-21 00:20 45.29995 20.82939 35195 ft 474 kts 99°
2026-02-21 00:21 45.28854 20.92181 35190 ft 474 kts 100°
2026-02-21 00:21 45.27724 21.01267 35195 ft 473 kts 100°
2026-02-21 00:22 45.26572 21.10470 35194 ft 472 kts 100°
2026-02-21 00:22 45.25423 21.19588 35184 ft 472 kts 100°
2026-02-21 00:23 45.24259 21.28769 35189 ft 472 kts 100°
2026-02-21 00:23 45.23088 21.37968 35180 ft 474 kts 101°
2026-02-21 00:24 45.21912 21.47199 35190 ft 476 kts 101°
2026-02-21 00:24 45.20730 21.56425 35212 ft 479 kts 101°
2026-02-21 00:25 45.19529 21.65742 35202 ft 480 kts 101°
2026-02-21 00:25 45.18325 21.75023 35194 ft 481 kts 101°
2026-02-21 00:26 45.17100 21.84385 35198 ft 481 kts 102°
2026-02-21 00:26 45.15260 21.98338 35210 ft 480 kts 102°
2026-02-21 00:27 45.14049 22.07455 35217 ft 480 kts 102°
2026-02-21 00:27 45.12802 22.16773 35232 ft 480 kts 102°
2026-02-21 00:28 45.11558 22.26012 35232 ft 480 kts 102°
2026-02-21 00:28 45.10297 22.35318 35265 ft 480 kts 102°
2026-02-21 00:29 45.09031 22.44599 35243 ft 480 kts 103°
2026-02-21 00:29 45.07761 22.53852 35276 ft 481 kts 103°
2026-02-21 00:30 45.06691 22.61598 35278 ft 483 kts 103°
2026-02-21 00:30 45.05185 22.72448 35287 ft 484 kts 103°
2026-02-21 00:31 45.04090 22.80279 35273 ft 484 kts 104°
2026-02-21 00:31 45.02780 22.89593 35292 ft 487 kts 104°
2026-02-21 00:32 45.01445 22.99018 35299 ft 489 kts 104°
2026-02-21 00:32 45.00128 23.08274 35292 ft 490 kts 104°
2026-02-21 00:33 44.98774 23.17726 35291 ft 490 kts 104°
2026-02-21 00:33 44.97422 23.27106 35288 ft 490 kts 104°
2026-02-21 00:34 44.96054 23.36544 35290 ft 489 kts 104°
2026-02-21 00:34 44.94688 23.45901 35287 ft 488 kts 104°
2026-02-21 00:35 44.93312 23.55278 35269 ft 488 kts 105°
2026-02-21 00:35 44.91920 23.64694 35292 ft 490 kts 105°
2026-02-21 00:36 44.90526 23.74072 35293 ft 493 kts 105°
2026-02-21 00:36 44.89104 23.83582 35289 ft 495 kts 105°
2026-02-21 00:37 44.87681 23.93049 35271 ft 496 kts 106°
2026-02-21 00:37 44.86257 24.02458 35289 ft 498 kts 106°
2026-02-21 00:38 44.84799 24.12038 35286 ft 500 kts 106°
2026-02-21 00:38 44.83332 24.21626 35277 ft 500 kts 106°
2026-02-21 00:39 44.81864 24.31157 35270 ft 500 kts 107°
2026-02-21 00:39 44.80379 24.40748 35281 ft 500 kts 107°
2026-02-21 00:40 44.78887 24.50324 35280 ft 500 kts 107°
2026-02-21 00:40 44.77397 24.59839 35277 ft 500 kts 107°
2026-02-21 00:41 44.75751 24.69352 35272 ft 495 kts 114°
2026-02-21 00:41 44.73495 24.78454 35283 ft 493 kts 115°
2026-02-21 00:42 44.71176 24.87554 35274 ft 494 kts 115°
2026-02-21 00:42 44.68874 24.96666 35264 ft 494 kts 115°
2026-02-21 00:43 44.66630 25.05610 35277 ft 495 kts 115°
2026-02-21 00:43 44.64336 25.14743 35277 ft 496 kts 115°
2026-02-21 00:44 44.62031 25.23881 35281 ft 496 kts 115°
2026-02-21 00:44 44.59730 25.32965 35265 ft 497 kts 115°
2026-02-21 00:45 44.57399 25.42124 35278 ft 498 kts 115°
2026-02-21 00:45 44.55067 25.51249 35281 ft 499 kts 115°
2026-02-21 00:46 44.52715 25.60420 35279 ft 499 kts 115°
2026-02-21 00:46 44.50370 25.69528 35274 ft 500 kts 115°
2026-02-21 00:47 44.47996 25.78716 35292 ft 501 kts 115°
2026-02-21 00:47 44.45616 25.87885 35285 ft 501 kts 115°
2026-02-21 00:48 44.43227 25.97059 35279 ft 502 kts 115°
2026-02-21 00:48 44.40879 26.06039 35296 ft 502 kts 115°
2026-02-21 00:49 44.38465 26.15232 35293 ft 503 kts 115°
2026-02-21 00:49 44.36057 26.24372 35288 ft 503 kts 115°
2026-02-21 00:50 44.33628 26.33552 35244 ft 503 kts 115°
2026-02-21 00:50 44.31185 26.42753 35257 ft 503 kts 115°
2026-02-21 00:51 44.28757 26.51863 35256 ft 503 kts 116°
2026-02-21 00:51 44.26305 26.61027 35251 ft 503 kts 116°
2026-02-21 00:52 44.23847 26.70176 35247 ft 503 kts 116°
2026-02-21 00:52 44.21395 26.79269 35247 ft 503 kts 116°
2026-02-21 00:53 44.18918 26.88421 35244 ft 503 kts 116°
2026-02-21 00:53 44.16441 26.97536 35227 ft 502 kts 116°
2026-02-21 00:54 44.14001 27.06487 35236 ft 502 kts 116°
2026-02-21 00:55 44.10259 27.20144 35252 ft 502 kts 116°
2026-02-21 00:55 44.07772 27.29178 35228 ft 502 kts 116°
2026-02-21 00:56 44.05265 27.38253 35233 ft 502 kts 116°
2026-02-21 00:56 44.02752 27.47318 35236 ft 502 kts 116°
2026-02-21 00:57 44.00250 27.56305 35240 ft 502 kts 116°
2026-02-21 00:57 43.97722 27.65352 35220 ft 501 kts 116°
2026-02-21 00:58 43.95193 27.74374 35223 ft 501 kts 117°
2026-02-21 00:58 43.92669 27.83346 35227 ft 501 kts 117°
2026-02-21 00:59 43.90121 27.92368 35224 ft 501 kts 117°
2026-02-21 00:59 43.87604 28.01247 35217 ft 500 kts 117°
2026-02-21 01:00 43.85072 28.10150 35220 ft 499 kts 117°
2026-02-21 01:00 43.82515 28.19108 35219 ft 499 kts 117°
2026-02-21 01:01 43.79952 28.28056 35208 ft 498 kts 117°
2026-02-21 01:01 43.77410 28.36905 35219 ft 496 kts 117°
2026-02-21 01:02 43.74870 28.45708 35212 ft 494 kts 117°
2026-02-21 01:02 43.71863 28.54144 35214 ft 483 kts 128°
2026-02-21 01:03 43.68225 28.61930 35220 ft 480 kts 130°
2026-02-21 01:03 43.64611 28.69631 35223 ft 480 kts 129°
2026-02-21 01:04 43.60998 28.77390 35215 ft 480 kts 129°
2026-02-21 01:04 43.57392 28.85158 35185 ft 480 kts 130°
2026-02-21 01:05 43.53804 28.92874 35199 ft 481 kts 130°
2026-02-21 01:05 43.50231 29.00538 35197 ft 482 kts 130°
2026-02-21 01:06 43.46594 29.08313 35187 ft 483 kts 130°
2026-02-21 01:06 43.42969 29.16045 35182 ft 483 kts 131°
2026-02-21 01:07 43.39309 29.23828 35182 ft 485 kts 131°
2026-02-21 01:07 43.35622 29.31647 35175 ft 486 kts 131°
2026-02-21 01:08 43.31960 29.39397 35150 ft 486 kts 131°
2026-02-21 01:08 43.28266 29.47192 35169 ft 486 kts 132°
2026-02-21 01:09 43.24573 29.54963 35170 ft 487 kts 132°
2026-02-21 01:09 43.20871 29.62733 35161 ft 487 kts 132°
2026-02-21 01:10 43.17164 29.70493 35158 ft 486 kts 132°
2026-02-21 01:10 43.13534 29.78074 35160 ft 486 kts 132°
2026-02-21 01:11 43.09823 29.85803 35168 ft 485 kts 132°
2026-02-21 01:11 43.06115 29.93507 35142 ft 484 kts 132°
2026-02-21 01:12 43.02475 30.01050 35152 ft 482 kts 133°
2026-02-21 01:12 42.98783 30.08678 35151 ft 481 kts 133°
2026-02-21 01:13 42.95092 30.16284 35152 ft 481 kts 133°
2026-02-21 01:13 42.91396 30.23883 35149 ft 480 kts 133°
2026-02-21 01:14 42.87699 30.31463 35154 ft 480 kts 133°
2026-02-21 01:14 42.84013 30.39003 35154 ft 481 kts 133°
2026-02-21 01:15 42.80298 30.46588 35138 ft 482 kts 133°
2026-02-21 01:15 42.76573 30.54180 35151 ft 484 kts 132°
2026-02-21 01:16 42.73466 30.62470 35157 ft 500 kts 120°
2026-02-21 01:16 42.71420 30.71638 35157 ft 510 kts 112°
2026-02-21 01:17 42.69661 30.80998 35150 ft 511 kts 112°
2026-02-21 01:17 42.67875 30.90363 35158 ft 512 kts 113°
2026-02-21 01:18 42.66042 30.99718 35145 ft 513 kts 113°
2026-02-21 01:18 42.64210 31.08947 35134 ft 512 kts 113°
2026-02-21 01:19 42.62346 31.18291 35144 ft 513 kts 113°
2026-02-21 01:19 42.60489 31.27567 35155 ft 513 kts 113°
2026-02-21 01:20 42.58610 31.36914 35155 ft 513 kts 114°
2026-02-21 01:20 42.56725 31.46253 35147 ft 513 kts 114°
2026-02-21 01:21 42.54830 31.55594 35154 ft 514 kts 114°
2026-02-21 01:21 42.53248 31.63360 35155 ft 514 kts 114°
2026-02-21 01:22 42.51336 31.72704 35133 ft 515 kts 114°
2026-02-21 01:22 42.49416 31.82049 35155 ft 515 kts 114°
2026-02-21 01:23 42.47488 31.91390 35152 ft 515 kts 114°
2026-02-21 01:23 42.45574 32.00618 35157 ft 515 kts 114°
2026-02-21 01:24 42.43630 32.09952 35150 ft 515 kts 114°
2026-02-21 01:24 42.41673 32.19303 35158 ft 516 kts 114°
2026-02-21 01:25 42.39719 32.28599 35157 ft 517 kts 114°
2026-02-21 01:25 42.37745 32.37954 35134 ft 518 kts 114°
2026-02-21 01:26 42.35761 32.47316 35152 ft 518 kts 114°
2026-02-21 01:26 42.33773 32.56684 35162 ft 519 kts 113°
2026-02-21 01:27 42.32389 32.66340 35169 ft 527 kts 105°
2026-02-21 01:27 42.31339 32.76141 35164 ft 527 kts 105°
2026-02-21 01:28 42.30268 32.85937 35157 ft 526 kts 106°
2026-02-21 01:28 42.29153 32.95703 35165 ft 526 kts 106°
2026-02-21 01:29 42.28030 33.05339 35161 ft 525 kts 106°
2026-02-21 01:29 42.26887 33.15079 35164 ft 525 kts 106°
2026-02-21 01:30 42.25747 33.24742 35168 ft 525 kts 106°
2026-02-21 01:30 42.24591 33.34477 35170 ft 526 kts 106°
2026-02-21 01:31 42.23425 33.44224 35148 ft 526 kts 106°
2026-02-21 01:31 42.22249 33.53982 35179 ft 527 kts 106°
2026-02-21 01:32 42.21062 33.63757 35184 ft 528 kts 106°
2026-02-21 01:32 42.19868 33.73530 35182 ft 528 kts 106°
2026-02-21 01:33 42.18663 33.83315 35172 ft 528 kts 106°
2026-02-21 01:33 42.17452 33.93089 35189 ft 529 kts 106°
2026-02-21 01:34 42.16257 34.02667 35189 ft 529 kts 106°
2026-02-21 01:34 42.14412 34.17343 35164 ft 529 kts 105°
2026-02-21 01:35 42.13171 34.27117 35182 ft 529 kts 106°
2026-02-21 01:35 42.11923 34.36894 35200 ft 530 kts 106°
2026-02-21 01:36 42.10655 34.46681 35193 ft 530 kts 106°
2026-02-21 01:36 42.09308 34.56440 35202 ft 530 kts 107°
2026-02-21 01:37 42.07940 34.66200 35190 ft 531 kts 107°
2026-02-21 01:37 42.06585 34.75907 35200 ft 531 kts 107°
2026-02-21 01:38 42.05218 34.85673 35183 ft 531 kts 106°
2026-02-21 01:38 42.03911 34.95454 35200 ft 532 kts 105°
2026-02-21 01:39 42.02292 35.04969 35202 ft 523 kts 116°
2026-02-21 01:39 41.99293 35.13732 35207 ft 510 kts 129°
2026-02-21 01:40 41.95361 35.21573 35197 ft 506 kts 132°
2026-02-21 01:40 41.91346 35.29365 35206 ft 508 kts 132°
2026-02-21 01:41 41.87364 35.37171 35198 ft 511 kts 132°
2026-02-21 01:41 41.83361 35.45065 35185 ft 512 kts 131°
2026-02-21 01:42 41.79347 35.52974 35199 ft 513 kts 131°
2026-02-21 01:42 41.75322 35.60879 35184 ft 514 kts 131°
2026-02-21 01:43 41.71289 35.68772 35175 ft 513 kts 131°
2026-02-21 01:43 41.67256 35.76645 35184 ft 513 kts 132°
2026-02-21 01:44 41.63221 35.84500 35186 ft 513 kts 132°
2026-02-21 01:44 41.59180 35.92347 35184 ft 512 kts 132°
2026-02-21 01:45 41.55166 36.00122 35186 ft 512 kts 132°
2026-02-21 01:45 41.51142 36.07897 35189 ft 512 kts 132°
2026-02-21 01:46 41.47092 36.15704 35180 ft 511 kts 132°
2026-02-21 01:46 41.43039 36.23495 35194 ft 511 kts 132°
2026-02-21 01:47 41.39009 36.31222 35196 ft 511 kts 132°
2026-02-21 01:47 41.34946 36.38995 35182 ft 511 kts 132°
2026-02-21 01:48 41.30878 36.46759 35212 ft 512 kts 132°
2026-02-21 01:48 41.27382 36.55100 35209 ft 526 kts 116°
2026-02-21 01:49 41.25657 36.64663 35197 ft 539 kts 99°
2026-02-21 01:49 41.25008 36.74585 35211 ft 540 kts 98°
2026-02-21 01:50 41.24359 36.84540 35210 ft 540 kts 99°
2026-02-21 01:50 41.23618 36.94407 35204 ft 540 kts 99°
2026-02-21 01:51 41.22845 37.04213 35185 ft 540 kts 99°
2026-02-21 01:51 41.22063 37.14127 35200 ft 539 kts 99°
2026-02-21 01:52 41.21281 37.24027 35203 ft 539 kts 99°
2026-02-21 01:52 41.20557 37.33950 35200 ft 539 kts 99°
2026-02-21 01:53 41.19855 37.43812 35192 ft 539 kts 98°
2026-02-21 01:53 41.19127 37.53710 35203 ft 539 kts 98°
2026-02-21 01:54 41.18545 37.63635 35196 ft 539 kts 97°
2026-02-21 01:54 41.17774 37.73517 35201 ft 538 kts 101°
2026-02-21 01:55 41.16834 37.83363 35187 ft 538 kts 100°
2026-02-21 01:55 41.15994 37.93182 35191 ft 538 kts 99°
2026-02-21 01:56 41.15238 38.02943 35187 ft 539 kts 99°
2026-02-21 01:56 41.14463 38.12842 35189 ft 539 kts 99°
2026-02-21 01:57 41.13666 38.22712 35192 ft 539 kts 99°
2026-02-21 01:57 41.12855 38.32604 35189 ft 539 kts 99°
2026-02-21 01:58 41.12030 38.42485 35191 ft 539 kts 99°
2026-02-21 01:58 41.11198 38.52369 35181 ft 539 kts 99°
2026-02-21 01:59 41.10365 38.62199 35191 ft 539 kts 99°
2026-02-21 01:59 41.09538 38.72089 35194 ft 539 kts 99°
2026-02-21 02:00 41.08650 38.81960 35193 ft 539 kts 99°
2026-02-21 02:00 41.07732 38.91833 35189 ft 539 kts 99°
2026-02-21 02:01 41.06830 39.01567 35194 ft 539 kts 99°
2026-02-21 02:01 41.05914 39.11420 35196 ft 539 kts 99°
2026-02-21 02:02 41.04999 39.21269 35189 ft 539 kts 99°
2026-02-21 02:02 41.04100 39.31046 35207 ft 538 kts 99°
2026-02-21 02:03 41.03186 39.40896 35209 ft 539 kts 99°
2026-02-21 02:03 41.02262 39.50750 35201 ft 540 kts 99°
2026-02-21 02:04 41.01325 39.60611 35212 ft 539 kts 99°
2026-02-21 02:04 41.00382 39.70458 35207 ft 539 kts 99°
2026-02-21 02:05 40.99474 39.80239 35219 ft 539 kts 96°
2026-02-21 02:05 40.99179 39.90143 35218 ft 539 kts 92°
2026-02-21 02:06 40.99007 40.00044 35203 ft 539 kts 92°
2026-02-21 02:06 40.98777 40.09862 35195 ft 539 kts 93°
2026-02-21 02:07 40.98516 40.19778 35193 ft 539 kts 93°
2026-02-21 02:07 40.98251 40.29706 35183 ft 540 kts 93°
2026-02-21 02:08 40.97978 40.39648 35190 ft 540 kts 93°
2026-02-21 02:08 40.97698 40.49518 35179 ft 540 kts 93°
2026-02-21 02:09 40.97410 40.59452 35189 ft 540 kts 93°
2026-02-21 02:09 40.97112 40.69381 35191 ft 539 kts 93°
2026-02-21 02:10 40.96807 40.79294 35184 ft 539 kts 93°
2026-02-21 02:10 40.96495 40.89210 35185 ft 539 kts 93°
2026-02-21 02:11 40.96171 40.99048 35191 ft 538 kts 94°
2026-02-21 02:11 40.95838 41.08795 35179 ft 536 kts 94°
2026-02-21 02:12 40.95493 41.18653 35198 ft 537 kts 94°
2026-02-21 02:12 40.95141 41.28525 35207 ft 536 kts 93°
2026-02-21 02:13 40.94784 41.38367 35234 ft 535 kts 94°
2026-02-21 02:13 40.94419 41.48192 35268 ft 535 kts 94°
2026-02-21 02:14 40.94042 41.58023 35262 ft 536 kts 94°
2026-02-21 02:14 40.93722 41.66205 35299 ft 536 kts 94°
2026-02-21 02:15 40.93333 41.76062 35269 ft 536 kts 94°
2026-02-21 02:15 40.92933 41.85905 35294 ft 536 kts 94°
2026-02-21 02:16 40.92526 41.95753 35285 ft 537 kts 94°
2026-02-21 02:16 40.92115 42.05493 35283 ft 537 kts 94°
2026-02-21 02:17 40.91692 42.15295 35254 ft 537 kts 94°
2026-02-21 02:17 40.91259 42.25133 35267 ft 535 kts 94°
2026-02-21 02:18 40.90818 42.34954 35257 ft 535 kts 94°
2026-02-21 02:18 40.90369 42.44785 35245 ft 534 kts 94°
2026-02-21 02:19 40.89913 42.54585 35239 ft 533 kts 94°
2026-02-21 02:19 40.89454 42.64292 35269 ft 532 kts 94°
2026-02-21 02:20 40.88983 42.74046 35257 ft 532 kts 94°
2026-02-21 02:20 40.88504 42.83796 35291 ft 532 kts 95°
2026-02-21 02:21 40.88018 42.93545 35282 ft 532 kts 95°
2026-02-21 02:21 40.87528 43.03168 35317 ft 532 kts 95°
2026-02-21 02:22 40.87026 43.12916 35316 ft 532 kts 95°
2026-02-21 02:22 40.86514 43.22666 35329 ft 532 kts 95°
2026-02-21 02:23 40.85995 43.32406 35346 ft 532 kts 95°
2026-02-21 02:23 40.85471 43.42084 35386 ft 532 kts 95°
2026-02-21 02:24 40.84935 43.51836 35365 ft 532 kts 95°
2026-02-21 02:24 40.84391 43.61595 35383 ft 532 kts 95°
2026-02-21 02:25 40.83857 43.71352 35359 ft 533 kts 94°
2026-02-21 02:25 40.83560 43.81125 35360 ft 532 kts 93°
2026-02-21 02:26 40.83255 43.90881 35345 ft 532 kts 93°
2026-02-21 02:27 40.82763 44.05385 35309 ft 532 kts 93°
2026-02-21 02:27 40.82425 44.15070 35293 ft 531 kts 93°
2026-02-21 02:28 40.82080 44.24806 35280 ft 531 kts 93°
2026-02-21 02:28 40.81727 44.34535 35275 ft 531 kts 93°
2026-02-21 02:29 40.81365 44.44276 35263 ft 531 kts 94°
2026-02-21 02:29 40.80995 44.54017 35276 ft 531 kts 93°
2026-02-21 02:30 40.80618 44.63760 35259 ft 532 kts 93°
2026-02-21 02:30 40.80231 44.73495 35264 ft 531 kts 94°
2026-02-21 02:31 40.79839 44.83168 35274 ft 531 kts 94°
2026-02-21 02:31 40.79436 44.92900 35283 ft 531 kts 94°
2026-02-21 02:32 40.79030 45.02498 35285 ft 531 kts 94°
2026-02-21 02:32 40.78612 45.12224 35290 ft 531 kts 94°
2026-02-21 02:33 40.78185 45.21956 35289 ft 531 kts 94°
2026-02-21 02:33 40.77750 45.31682 35306 ft 531 kts 94°
2026-02-21 02:34 40.77308 45.41416 35302 ft 531 kts 94°
2026-02-21 02:34 40.77060 45.51145 35299 ft 530 kts 88°
2026-02-21 02:35 40.77876 45.60796 35308 ft 529 kts 81°
2026-02-21 02:35 40.78945 45.70400 35316 ft 529 kts 81°
2026-02-21 02:36 40.79975 45.80029 35327 ft 530 kts 81°
2026-02-21 02:36 40.80948 45.89596 35328 ft 530 kts 82°
2026-02-21 02:37 40.81912 45.99244 35335 ft 530 kts 82°
2026-02-21 02:37 40.82860 46.08795 35325 ft 530 kts 82°
2026-02-21 02:38 40.83813 46.18452 35334 ft 530 kts 82°
2026-02-21 02:38 40.84758 46.28102 35341 ft 530 kts 82°
2026-02-21 02:39 40.85696 46.37758 35340 ft 530 kts 82°
2026-02-21 02:39 40.86627 46.47440 35348 ft 530 kts 82°
2026-02-21 02:40 40.87543 46.57054 35357 ft 531 kts 82°
2026-02-21 02:40 40.88458 46.66737 35351 ft 531 kts 82°
2026-02-21 02:41 40.89278 46.76437 35344 ft 531 kts 88°
2026-02-21 02:41 40.88637 46.86122 35360 ft 530 kts 103°
2026-02-21 02:42 40.86421 46.95358 35361 ft 527 kts 113°
2026-02-21 02:42 40.83829 47.04301 35342 ft 528 kts 112°
2026-02-21 02:43 40.81295 47.13433 35344 ft 530 kts 112°
2026-02-21 02:43 40.78771 47.22583 35348 ft 531 kts 112°
2026-02-21 02:44 40.76242 47.31664 35356 ft 531 kts 112°
2026-02-21 02:44 40.73690 47.40807 35342 ft 531 kts 112°
2026-02-21 02:45 40.71121 47.49932 35350 ft 530 kts 112°
2026-02-21 02:45 40.68545 47.59037 35351 ft 530 kts 112°
2026-02-21 02:46 40.65965 47.68136 35342 ft 529 kts 112°
2026-02-21 02:46 40.63388 47.77200 35339 ft 528 kts 112°
2026-02-21 02:47 40.60805 47.86253 35344 ft 528 kts 112°
2026-02-21 02:47 40.58904 47.95588 35326 ft 531 kts 99°
2026-02-21 02:48 40.58430 48.05082 35326 ft 531 kts 87°
2026-02-21 02:48 40.58839 48.14767 35338 ft 531 kts 87°
2026-02-21 02:49 40.59131 48.24476 35317 ft 531 kts 88°
2026-02-21 02:49 40.59376 48.34185 35303 ft 531 kts 88°
2026-02-21 02:50 40.59619 48.43903 35307 ft 531 kts 88°
2026-02-21 02:50 40.59862 48.53634 35294 ft 532 kts 88°
2026-02-21 02:51 40.60100 48.63386 35300 ft 533 kts 88°
2026-02-21 02:51 40.60328 48.73092 35277 ft 534 kts 88°
2026-02-21 02:52 40.60548 48.82876 35261 ft 535 kts 88°
2026-02-21 02:52 40.60761 48.92660 35280 ft 536 kts 89°
2026-02-21 02:53 40.60963 49.02354 35243 ft 538 kts 89°
2026-02-21 02:53 40.61162 49.12238 35247 ft 541 kts 89°
2026-02-21 02:54 40.61370 49.22160 35246 ft 543 kts 88°
2026-02-21 02:54 40.61897 49.32023 35232 ft 544 kts 85°
2026-02-21 02:55 40.62558 49.41936 35233 ft 543 kts 85°
2026-02-21 02:55 40.63162 49.51841 35235 ft 542 kts 85°
2026-02-21 02:56 40.63710 49.61708 35227 ft 539 kts 85°
2026-02-21 02:56 40.64237 49.71537 35255 ft 537 kts 85°
2026-02-21 02:57 40.64758 49.81325 35258 ft 535 kts 85°
2026-02-21 02:57 40.65274 49.91107 35260 ft 534 kts 85°
2026-02-21 02:58 40.65774 50.00741 35267 ft 533 kts 85°
2026-02-21 02:58 40.66269 50.10434 35266 ft 534 kts 85°
2026-02-21 02:59 40.66759 50.20194 35272 ft 533 kts 85°
2026-02-21 02:59 40.67240 50.29953 35279 ft 533 kts 85°
2026-02-21 03:00 40.67715 50.39715 35290 ft 534 kts 85°
2026-02-21 03:00 40.68180 50.49479 35298 ft 534 kts 85°
2026-02-21 03:01 40.68639 50.59255 35309 ft 534 kts 86°
2026-02-21 03:01 40.69089 50.69021 35309 ft 534 kts 86°
2026-02-21 03:02 40.69531 50.78797 35308 ft 534 kts 86°
2026-02-21 03:02 40.69962 50.88500 35324 ft 534 kts 86°
2026-02-21 03:03 40.70389 50.98283 35323 ft 534 kts 86°
2026-02-21 03:03 40.70801 51.07935 35321 ft 535 kts 86°
2026-02-21 03:04 40.71211 51.17726 35318 ft 534 kts 86°
2026-02-21 03:04 40.71612 51.27505 35324 ft 534 kts 86°
2026-02-21 03:05 40.72005 51.37283 35328 ft 534 kts 86°
2026-02-21 03:05 40.72326 51.45404 35332 ft 533 kts 86°
2026-02-21 03:06 40.73230 51.55086 35334 ft 531 kts 76°
2026-02-21 03:06 40.74843 51.64576 35345 ft 531 kts 75°
2026-02-21 03:07 40.76470 51.74074 35346 ft 531 kts 76°
2026-02-21 03:07 40.78046 51.83606 35347 ft 532 kts 76°
2026-02-21 03:08 40.79592 51.93161 35347 ft 532 kts 76°
2026-02-21 03:08 40.81101 52.02544 35354 ft 532 kts 76°
2026-02-21 03:09 40.82636 52.12114 35335 ft 533 kts 76°
2026-02-21 03:09 40.84164 52.21686 35349 ft 532 kts 76°
2026-02-21 03:10 40.85682 52.31251 35353 ft 532 kts 76°
2026-02-21 03:10 40.87193 52.40831 35364 ft 532 kts 76°
2026-02-21 03:11 40.88695 52.50403 35362 ft 532 kts 77°
2026-02-21 03:11 40.90156 52.59986 35363 ft 532 kts 79°
2026-02-21 03:12 40.90813 52.69728 35379 ft 532 kts 86°
2026-02-21 03:12 40.91157 52.79505 35368 ft 533 kts 86°
2026-02-21 03:13 40.91540 52.89288 35362 ft 532 kts 86°
2026-02-21 03:13 40.91954 52.99004 35373 ft 532 kts 86°
2026-02-21 03:14 40.92358 53.08664 35381 ft 532 kts 86°
2026-02-21 03:14 40.92748 53.18456 35385 ft 533 kts 86°
2026-02-21 03:15 40.93115 53.28241 35386 ft 533 kts 86°
2026-02-21 03:15 40.93473 53.38030 35388 ft 533 kts 86°
2026-02-21 03:16 40.93827 53.47830 35397 ft 533 kts 86°
2026-02-21 03:16 40.94171 53.57566 35391 ft 533 kts 86°
2026-02-21 03:17 40.94509 53.67374 35390 ft 533 kts 86°
2026-02-21 03:17 40.94839 53.77184 35403 ft 533 kts 86°
2026-02-21 03:18 40.95159 53.86977 35404 ft 533 kts 86°
2026-02-21 03:18 40.95472 53.96790 35399 ft 533 kts 86°
2026-02-21 03:19 40.95772 54.06427 35407 ft 533 kts 86°
2026-02-21 03:19 40.96068 54.16235 35404 ft 533 kts 87°
2026-02-21 03:20 40.96356 54.26039 35411 ft 533 kts 87°
2026-02-21 03:20 40.96633 54.35768 35414 ft 533 kts 87°
2026-02-21 03:21 40.96905 54.45572 35412 ft 533 kts 87°
2026-02-21 03:21 40.97168 54.55384 35415 ft 533 kts 87°
2026-02-21 03:22 40.97422 54.65193 35426 ft 533 kts 87°
2026-02-21 03:22 40.97669 54.75005 35405 ft 534 kts 87°
2026-02-21 03:23 40.97909 54.84821 35430 ft 533 kts 87°
2026-02-21 03:23 40.98246 54.99553 35426 ft 534 kts 87°
2026-02-21 03:24 40.98452 55.09186 35440 ft 534 kts 87°
2026-02-21 03:24 40.98655 55.19020 35431 ft 534 kts 87°
2026-02-21 03:25 40.98850 55.28847 35443 ft 534 kts 87°
2026-02-21 03:25 40.99037 55.38668 35431 ft 533 kts 88°
2026-02-21 03:26 40.99216 55.48484 35453 ft 533 kts 88°
2026-02-21 03:26 40.99386 55.58291 35458 ft 533 kts 88°
2026-02-21 03:27 40.99548 55.68097 35458 ft 533 kts 88°
2026-02-21 03:27 40.99703 55.77907 35462 ft 533 kts 88°
2026-02-21 03:28 40.99858 55.87717 35463 ft 533 kts 88°
2026-02-21 03:28 41.00013 55.97463 35448 ft 533 kts 88°
2026-02-21 03:29 41.00157 56.07163 35471 ft 533 kts 88°
2026-02-21 03:29 41.00294 56.16979 35461 ft 533 kts 88°
2026-02-21 03:30 41.00422 56.26808 35473 ft 534 kts 88°
2026-02-21 03:30 41.00543 56.36638 35472 ft 534 kts 88°
2026-02-21 03:31 41.00656 56.46468 35468 ft 534 kts 88°
2026-02-21 03:31 41.01245 56.56240 35478 ft 531 kts 79°
2026-02-21 03:32 41.02440 56.65839 35471 ft 532 kts 78°
2026-02-21 03:32 41.03653 56.75501 35486 ft 532 kts 78°
2026-02-21 03:33 41.04818 56.85191 35492 ft 533 kts 79°
2026-02-21 03:33 41.05952 56.94891 35491 ft 533 kts 79°
2026-02-21 03:34 41.07061 57.04472 35499 ft 533 kts 79°
2026-02-21 03:34 41.08182 57.14195 35490 ft 533 kts 79°
2026-02-21 03:35 41.09296 57.23915 35487 ft 534 kts 79°
2026-02-21 03:35 41.10402 57.33643 35494 ft 534 kts 79°
2026-02-21 03:36 41.11501 57.43389 35492 ft 534 kts 79°
2026-02-21 03:36 41.12592 57.53139 35488 ft 534 kts 79°
2026-02-21 03:37 41.13674 57.62884 35495 ft 534 kts 79°
2026-02-21 03:37 41.14749 57.72641 35492 ft 534 kts 79°
2026-02-21 03:38 41.15808 57.82327 35500 ft 534 kts 79°
2026-02-21 03:38 41.16865 57.92078 35495 ft 534 kts 79°
2026-02-21 03:39 41.18422 58.06579 35496 ft 534 kts 79°
2026-02-21 03:40 41.19458 58.16343 35496 ft 534 kts 79°
2026-02-21 03:40 41.20482 58.26109 35498 ft 534 kts 79°
2026-02-21 03:41 41.21499 58.35876 35505 ft 534 kts 79°
2026-02-21 03:41 41.22510 58.45668 35504 ft 535 kts 79°
2026-02-21 03:42 41.23506 58.55393 35501 ft 535 kts 79°
2026-02-21 03:42 41.24499 58.65180 35513 ft 535 kts 79°
2026-02-21 03:43 41.25485 58.74975 35509 ft 535 kts 79°
2026-02-21 03:43 41.26464 58.84786 35503 ft 535 kts 79°
2026-02-21 03:44 41.27434 58.94593 35506 ft 535 kts 79°
2026-02-21 03:44 41.28382 59.04270 35521 ft 536 kts 79°
2026-02-21 03:45 41.29338 59.14105 35510 ft 536 kts 79°
2026-02-21 03:45 41.30285 59.23947 35513 ft 537 kts 79°
2026-02-21 03:46 41.31224 59.33795 35509 ft 537 kts 79°
2026-02-21 03:46 41.32150 59.43589 35514 ft 537 kts 79°
2026-02-21 03:47 41.33074 59.53459 35498 ft 538 kts 79°
2026-02-21 03:47 41.34003 59.63324 35510 ft 536 kts 77°
2026-02-21 03:48 41.35691 59.72920 35518 ft 528 kts 66°
2026-02-21 03:48 41.38039 59.82191 35520 ft 528 kts 66°
2026-02-21 03:49 41.40371 59.91488 35521 ft 529 kts 66°
2026-02-21 03:49 41.42616 60.00699 35537 ft 530 kts 67°
2026-02-21 03:50 41.44875 60.10055 35527 ft 530 kts 67°
2026-02-21 03:50 41.47118 60.19353 35533 ft 531 kts 67°
2026-02-21 03:51 41.49358 60.28802 35537 ft 531 kts 67°
2026-02-21 03:51 41.51541 60.38146 35540 ft 531 kts 67°
2026-02-21 03:52 41.53738 60.47571 35537 ft 531 kts 67°
2026-02-21 03:52 41.55930 60.56995 35537 ft 531 kts 67°
2026-02-21 03:53 41.58117 60.66427 35546 ft 531 kts 66°
2026-02-21 03:53 41.60494 60.75746 35537 ft 529 kts 64°
2026-02-21 03:54 41.62992 60.84984 35537 ft 529 kts 64°
2026-02-21 03:54 41.65444 60.94188 35566 ft 529 kts 64°
2026-02-21 03:55 41.67844 61.03372 35554 ft 530 kts 65°
2026-02-21 03:55 41.70259 61.12691 35548 ft 530 kts 65°
2026-02-21 03:56 41.72667 61.22010 35544 ft 530 kts 65°
2026-02-21 03:56 41.75069 61.31329 35541 ft 530 kts 65°
2026-02-21 03:57 41.77064 61.39095 35546 ft 530 kts 65°
2026-02-21 03:57 41.79842 61.49955 35548 ft 530 kts 65°
2026-02-21 03:58 41.82224 61.59305 35544 ft 530 kts 65°
2026-02-21 03:58 41.84198 61.67084 35549 ft 530 kts 65°
2026-02-21 03:59 41.86568 61.76453 35546 ft 530 kts 65°
2026-02-21 03:59 41.88927 61.85864 35847 ft 534 kts 65°
2026-02-21 03:59 41.90101 61.90582 36216 ft 532 kts 65°
2026-02-21 04:00 41.91268 61.95279 36595 ft 530 kts 65°
2026-02-21 04:00 41.92433 61.99968 36951 ft 528 kts 65°
2026-02-21 04:00 41.93562 62.04513 37260 ft 527 kts 65°
2026-02-21 04:00 41.94721 62.09190 37475 ft 528 kts 65°
2026-02-21 04:01 41.95886 62.13890 37538 ft 531 kts 65°
2026-02-21 04:01 41.98213 62.23319 37539 ft 530 kts 65°
2026-02-21 04:02 42.00512 62.32685 37546 ft 526 kts 65°
2026-02-21 04:02 42.02783 62.41964 37545 ft 524 kts 65°
2026-02-21 04:03 42.05058 62.51285 37551 ft 525 kts 65°
2026-02-21 04:03 42.07330 62.60638 37556 ft 526 kts 65°
2026-02-21 04:04 42.09604 62.70022 37554 ft 528 kts 65°
2026-02-21 04:04 42.11882 62.79446 37558 ft 530 kts 65°
2026-02-21 04:05 42.14155 62.88918 37553 ft 532 kts 65°
2026-02-21 04:05 42.16424 62.98416 37550 ft 532 kts 65°
2026-02-21 04:06 42.18650 63.07731 37582 ft 533 kts 65°
2026-02-21 04:06 42.20925 63.17241 37542 ft 533 kts 65°
2026-02-21 04:07 42.23191 63.26753 37541 ft 532 kts 65°
2026-02-21 04:07 42.25443 63.36259 37553 ft 531 kts 65°
2026-02-21 04:08 42.27683 63.45753 37552 ft 531 kts 65°
2026-02-21 04:08 42.29915 63.55255 37552 ft 530 kts 65°
2026-02-21 04:09 42.32137 63.64752 37556 ft 530 kts 65°
2026-02-21 04:09 42.34349 63.74247 37557 ft 530 kts 66°
2026-02-21 04:10 42.36556 63.83762 37550 ft 530 kts 66°
2026-02-21 04:10 42.38741 63.93222 37553 ft 530 kts 66°
2026-02-21 04:11 42.40902 64.02634 37569 ft 531 kts 66°
2026-02-21 04:11 42.43028 64.12208 37547 ft 531 kts 66°
2026-02-21 04:12 42.45143 64.21793 37556 ft 531 kts 66°
2026-02-21 04:12 42.47286 64.31373 37546 ft 531 kts 66°
2026-02-21 04:13 42.49442 64.40938 37548 ft 531 kts 66°
2026-02-21 04:13 42.51590 64.50509 37550 ft 531 kts 66°
2026-02-21 04:14 42.53725 64.60097 37545 ft 531 kts 66°
2026-02-21 04:14 42.55851 64.69697 37561 ft 532 kts 66°
2026-02-21 04:15 42.57974 64.79322 37539 ft 532 kts 66°
2026-02-21 04:15 42.60090 64.88957 37543 ft 532 kts 67°
2026-02-21 04:16 42.62195 64.98586 37572 ft 532 kts 67°
2026-02-21 04:16 42.64267 65.08109 37543 ft 532 kts 67°
2026-02-21 04:17 42.66355 65.17749 37534 ft 532 kts 67°
2026-02-21 04:17 42.68421 65.27326 37537 ft 531 kts 67°
2026-02-21 04:18 42.70158 65.35412 37542 ft 531 kts 67°
2026-02-21 04:19 42.74606 65.56264 37531 ft 530 kts 67°
2026-02-21 04:19 42.76635 65.65850 37540 ft 530 kts 68°
2026-02-21 04:20 42.78667 65.75485 37529 ft 529 kts 68°
2026-02-21 04:20 42.80699 65.85106 37524 ft 528 kts 68°
2026-02-21 04:21 42.82735 65.94716 37556 ft 528 kts 68°
2026-02-21 04:21 42.84738 66.04227 37527 ft 529 kts 68°
2026-02-21 04:22 42.86748 66.13867 37524 ft 529 kts 68°
2026-02-21 04:22 42.88724 66.23567 37519 ft 530 kts 69°
2026-02-21 04:23 42.90687 66.33275 37515 ft 532 kts 69°
2026-02-21 04:23 42.92643 66.42970 37518 ft 534 kts 69°
2026-02-21 04:24 42.94612 66.52765 37519 ft 536 kts 69°
2026-02-21 04:24 42.96581 66.62605 37523 ft 538 kts 69°
2026-02-21 04:25 42.98547 66.72484 37514 ft 539 kts 69°
2026-02-21 04:25 43.00494 66.82299 37507 ft 540 kts 69°
2026-02-21 04:26 43.02456 66.92200 37511 ft 540 kts 69°
2026-02-21 04:26 43.04384 67.01970 37506 ft 537 kts 70°
2026-02-21 04:27 43.06317 67.11823 37495 ft 535 kts 70°
2026-02-21 04:27 43.08219 67.21565 37488 ft 532 kts 70°
2026-02-21 04:28 43.10118 67.31331 37505 ft 530 kts 70°
2026-02-21 04:28 43.12001 67.41067 37495 ft 528 kts 70°
2026-02-21 04:29 43.13869 67.50789 37480 ft 527 kts 71°
2026-02-21 04:29 43.15722 67.60505 37491 ft 527 kts 71°
2026-02-21 04:30 43.17560 67.70190 37489 ft 528 kts 71°
2026-02-21 04:30 43.19406 67.79954 37493 ft 529 kts 71°
2026-02-21 04:31 43.21250 67.89719 37492 ft 530 kts 71°
2026-02-21 04:31 43.23093 67.99515 37483 ft 531 kts 71°
2026-02-21 04:32 43.24907 68.09205 37489 ft 532 kts 71°
2026-02-21 04:32 43.26741 68.19056 37486 ft 533 kts 71°
2026-02-21 04:33 43.28556 68.28859 37492 ft 533 kts 72°
2026-02-21 04:33 43.30304 68.38752 37463 ft 535 kts 76°
2026-02-21 04:34 43.31522 68.48825 37502 ft 535 kts 78°
2026-02-21 04:34 43.32715 68.58919 37509 ft 534 kts 77°
2026-02-21 04:35 43.33679 68.69055 37514 ft 536 kts 81°
2026-02-21 04:35 43.34459 68.79239 37498 ft 536 kts 81°
2026-02-21 04:36 43.35279 68.89416 37488 ft 535 kts 81°
2026-02-21 04:36 43.36130 68.99574 37471 ft 535 kts 81°
2026-02-21 04:37 43.36964 69.09609 37462 ft 535 kts 81°
2026-02-21 04:37 43.37798 69.19774 37441 ft 535 kts 81°
2026-02-21 04:38 43.38668 69.29881 37456 ft 535 kts 81°
2026-02-21 04:38 43.39552 69.40040 37445 ft 534 kts 81°
2026-02-21 04:39 43.40417 69.50181 37436 ft 533 kts 81°
2026-02-21 04:39 43.41267 69.60314 37439 ft 532 kts 82°
2026-02-21 04:40 43.42108 69.70432 37432 ft 532 kts 82°
2026-02-21 04:40 43.42947 69.80528 37413 ft 530 kts 82°
2026-02-21 04:41 43.43800 69.90523 37413 ft 529 kts 82°
2026-02-21 04:41 43.44640 70.00389 37397 ft 527 kts 82°
2026-02-21 04:42 43.45480 70.10414 37384 ft 527 kts 83°
2026-02-21 04:42 43.46308 70.20440 37391 ft 527 kts 83°
2026-02-21 04:43 43.47126 70.30468 37376 ft 527 kts 83°
2026-02-21 04:43 43.47938 70.40512 37375 ft 528 kts 83°
2026-02-21 04:44 43.48741 70.50563 37383 ft 528 kts 83°
2026-02-21 04:44 43.49536 70.60633 37379 ft 529 kts 83°
2026-02-21 04:45 43.50318 70.70641 37368 ft 528 kts 83°
2026-02-21 04:45 43.51096 70.80708 37381 ft 528 kts 84°
2026-02-21 04:46 43.51862 70.90765 37362 ft 528 kts 84°
2026-02-21 04:46 43.52603 71.00699 37365 ft 527 kts 84°
2026-02-21 04:47 43.53708 71.15785 37361 ft 527 kts 84°
2026-02-21 04:47 43.54435 71.25825 37363 ft 526 kts 84°
2026-02-21 04:48 43.55153 71.35868 37362 ft 526 kts 84°
2026-02-21 04:48 43.55743 71.44219 37363 ft 526 kts 84°
2026-02-21 04:49 43.56445 71.54269 37367 ft 527 kts 84°
2026-02-21 04:49 43.57139 71.64324 37357 ft 527 kts 85°
2026-02-21 04:50 43.57823 71.74380 37351 ft 527 kts 85°
2026-02-21 04:50 43.58499 71.84437 37352 ft 527 kts 85°
2026-02-21 04:51 43.59166 71.94493 37352 ft 526 kts 85°
2026-02-21 04:51 43.59814 72.04414 37357 ft 526 kts 85°
2026-02-21 04:52 43.60462 72.14459 37350 ft 525 kts 85°
2026-02-21 04:52 43.61101 72.24501 37347 ft 525 kts 85°
2026-02-21 04:53 43.61727 72.34473 37337 ft 525 kts 86°
2026-02-21 04:53 43.62347 72.44507 37340 ft 524 kts 86°
2026-02-21 04:54 43.62959 72.54541 37340 ft 525 kts 86°
2026-02-21 04:54 43.63562 72.64579 37336 ft 525 kts 86°
2026-02-21 04:55 43.64158 72.74638 37348 ft 526 kts 86°
2026-02-21 04:55 43.64746 72.84728 37338 ft 526 kts 86°
2026-02-21 04:56 43.65325 72.94814 37327 ft 527 kts 86°
2026-02-21 04:56 43.65888 73.04767 37334 ft 526 kts 87°
2026-02-21 04:57 43.66445 73.14782 37335 ft 526 kts 87°
2026-02-21 04:57 43.66997 73.24850 37316 ft 525 kts 87°
2026-02-21 04:58 43.67539 73.34911 37318 ft 525 kts 88°
2026-02-21 04:58 43.68071 73.44967 37336 ft 525 kts 88°
2026-02-21 04:59 43.68596 73.55026 37338 ft 524 kts 88°
2026-02-21 04:59 43.69111 73.65084 37322 ft 524 kts 88°
2026-02-21 05:00 43.69584 73.75069 37342 ft 523 kts 90°
2026-02-21 05:00 43.69402 73.85094 37344 ft 521 kts 95°
2026-02-21 05:01 43.69049 73.95110 37340 ft 522 kts 95°
2026-02-21 05:01 43.68741 74.05003 37328 ft 521 kts 94°
2026-02-21 05:02 43.68450 74.15014 37335 ft 520 kts 95°
2026-02-21 05:02 43.68146 74.25002 37333 ft 520 kts 95°
2026-02-21 05:03 43.67842 74.34979 37345 ft 520 kts 95°
2026-02-21 05:03 43.67531 74.44950 37323 ft 519 kts 95°
2026-02-21 05:04 43.67214 74.54849 37311 ft 519 kts 95°
2026-02-21 05:04 43.66886 74.64810 37283 ft 519 kts 95°
2026-02-21 05:05 43.66548 74.74773 37315 ft 520 kts 95°
2026-02-21 05:05 43.66200 74.84782 37284 ft 522 kts 95°
2026-02-21 05:06 43.65845 74.94786 37276 ft 520 kts 95°
2026-02-21 05:06 43.65487 75.04624 37277 ft 518 kts 95°
2026-02-21 05:07 43.65119 75.14483 37268 ft 516 kts 95°
2026-02-21 05:07 43.64741 75.24376 37261 ft 515 kts 96°
2026-02-21 05:08 43.64355 75.34252 37268 ft 515 kts 96°
2026-02-21 05:08 43.63961 75.44139 37258 ft 516 kts 96°
2026-02-21 05:09 43.63557 75.54055 37262 ft 517 kts 96°
2026-02-21 05:09 43.63137 75.63987 37260 ft 519 kts 96°
2026-02-21 05:10 43.62705 75.73942 37258 ft 520 kts 96°
2026-02-21 05:10 43.62265 75.83929 37255 ft 521 kts 96°
2026-02-21 05:11 43.61818 75.93907 37258 ft 521 kts 96°
2026-02-21 05:11 43.61369 76.03733 37257 ft 520 kts 96°
2026-02-21 05:12 43.60908 76.13613 37270 ft 519 kts 96°
2026-02-21 05:12 43.60438 76.23540 37280 ft 518 kts 97°
2026-02-21 05:13 43.59982 76.33449 37277 ft 518 kts 95°
2026-02-21 05:13 43.59908 76.43390 37300 ft 519 kts 92°
2026-02-21 05:14 43.59925 76.53369 37288 ft 520 kts 92°
2026-02-21 05:14 43.59900 76.63355 37290 ft 521 kts 93°
2026-02-21 05:15 43.59845 76.73356 37298 ft 521 kts 93°
2026-02-21 05:15 43.59780 76.83351 37301 ft 520 kts 94°
2026-02-21 05:16 43.59642 76.93323 37298 ft 520 kts 94°
2026-02-21 05:16 43.59520 77.03171 37300 ft 520 kts 93°
2026-02-21 05:17 43.59431 77.13154 37304 ft 521 kts 93°
2026-02-21 05:17 43.59227 77.23076 37309 ft 521 kts 95°
2026-02-21 05:18 43.58842 77.33072 37304 ft 522 kts 96°
2026-02-21 05:18 43.58473 77.43077 37292 ft 522 kts 95°
2026-02-21 05:19 43.58131 77.53089 37284 ft 523 kts 95°
2026-02-21 05:19 43.57983 77.63132 37275 ft 524 kts 93°
2026-02-21 05:20 43.57900 77.73168 37281 ft 523 kts 93°
2026-02-21 05:20 43.57773 77.83205 37262 ft 523 kts 94°
2026-02-21 05:21 43.57619 77.93168 37258 ft 523 kts 94°
2026-02-21 05:21 43.57459 78.03073 37248 ft 524 kts 94°
2026-02-21 05:22 43.57292 78.13134 37229 ft 525 kts 94°
2026-02-21 05:22 43.57120 78.23212 37229 ft 526 kts 94°
2026-02-21 05:23 43.56941 78.33310 37222 ft 527 kts 94°
2026-02-21 05:23 43.56752 78.43414 37210 ft 527 kts 94°
2026-02-21 05:24 43.56555 78.53515 37215 ft 527 kts 94°
2026-02-21 05:24 43.56348 78.63613 37210 ft 527 kts 94°
2026-02-21 05:25 43.56132 78.73705 37201 ft 526 kts 94°
2026-02-21 05:25 43.55908 78.83779 37220 ft 526 kts 94°
2026-02-21 05:26 43.55676 78.93852 37225 ft 526 kts 94°
2026-02-21 05:27 43.55311 79.08870 37187 ft 526 kts 94°
2026-02-21 05:27 43.55060 79.18882 37204 ft 526 kts 94°
2026-02-21 05:28 43.54796 79.28957 37190 ft 526 kts 94°
2026-02-21 05:28 43.54522 79.39032 37187 ft 526 kts 94°
2026-02-21 05:29 43.54239 79.49117 37147 ft 526 kts 94°
2026-02-21 05:29 43.53948 79.59199 37173 ft 527 kts 95°
2026-02-21 05:30 43.53649 79.69301 37173 ft 528 kts 95°
2026-02-21 05:30 43.53343 79.79352 37178 ft 529 kts 95°
2026-02-21 05:31 43.53021 79.89482 37153 ft 529 kts 95°
2026-02-21 05:31 43.52686 79.99620 37148 ft 529 kts 95°
2026-02-21 05:32 43.52348 80.09632 37145 ft 529 kts 95°
2026-02-21 05:32 43.51998 80.19760 37137 ft 528 kts 95°
2026-02-21 05:33 43.51640 80.29867 37142 ft 528 kts 95°
2026-02-21 05:33 43.51273 80.39963 37140 ft 527 kts 95°
2026-02-21 05:34 43.50898 80.50053 37128 ft 527 kts 95°
2026-02-21 05:34 43.50517 80.60059 37134 ft 527 kts 95°
2026-02-21 05:35 43.50126 80.70135 37126 ft 527 kts 95°
2026-02-21 05:35 43.49806 80.80216 37126 ft 527 kts 93°
2026-02-21 05:36 43.49681 80.90317 37125 ft 527 kts 92°
2026-02-21 05:36 43.49571 81.00303 37130 ft 528 kts 92°
2026-02-21 05:37 43.49420 81.10414 37124 ft 528 kts 93°
2026-02-21 05:37 43.49238 81.20478 37112 ft 529 kts 93°
2026-02-21 05:38 43.49045 81.30607 37108 ft 529 kts 93°
2026-02-21 05:38 43.48844 81.40744 37119 ft 530 kts 93°
2026-02-21 05:39 43.48636 81.50890 37118 ft 530 kts 93°
2026-02-21 05:39 43.48457 81.59328 37114 ft 529 kts 93°
2026-02-21 05:40 43.48232 81.69448 37122 ft 529 kts 93°
2026-02-21 05:40 43.47999 81.79606 37114 ft 530 kts 93°
2026-02-21 05:41 43.47757 81.89760 37118 ft 531 kts 93°
2026-02-21 05:41 43.47506 81.99925 37115 ft 531 kts 93°
2026-02-21 05:42 43.47250 82.09901 37122 ft 531 kts 93°
2026-02-21 05:42 43.46980 82.20073 37119 ft 531 kts 94°
2026-02-21 05:43 43.46701 82.30245 37120 ft 532 kts 94°
2026-02-21 05:43 43.46413 82.40429 37117 ft 532 kts 94°
2026-02-21 05:44 43.46115 82.50610 37104 ft 532 kts 94°
2026-02-21 05:44 43.45811 82.60730 37104 ft 532 kts 94°
2026-02-21 05:45 43.45496 82.70901 37103 ft 532 kts 94°
2026-02-21 05:45 43.45171 82.81085 37095 ft 532 kts 94°
2026-02-21 05:46 43.44838 82.91256 37096 ft 532 kts 94°
2026-02-21 05:46 43.44500 83.01304 37076 ft 532 kts 94°
2026-02-21 05:47 43.44149 83.11493 37077 ft 532 kts 94°
2026-02-21 05:47 43.43789 83.21664 37077 ft 533 kts 94°
2026-02-21 05:48 43.43422 83.31799 37045 ft 532 kts 94°
2026-02-21 05:48 43.42923 83.41950 37073 ft 531 kts 97°
2026-02-21 05:49 43.42072 83.52046 37083 ft 530 kts 98°
2026-02-21 05:49 43.41171 83.62120 37106 ft 531 kts 98°
2026-02-21 05:50 43.40297 83.72154 37101 ft 531 kts 98°
2026-02-21 05:50 43.39428 83.82255 37126 ft 531 kts 98°
2026-02-21 05:51 43.38553 83.92341 37150 ft 532 kts 98°
2026-02-21 05:51 43.37675 84.02321 37141 ft 532 kts 98°
2026-02-21 05:52 43.36781 84.12372 37160 ft 532 kts 98°
2026-02-21 05:52 43.35416 84.27529 37180 ft 532 kts 98°
2026-02-21 05:53 43.34498 84.37611 37169 ft 530 kts 98°
2026-02-21 05:53 43.33549 84.47643 37199 ft 529 kts 98°
2026-02-21 05:54 43.32589 84.57691 37189 ft 532 kts 98°
2026-02-21 05:54 43.31612 84.67781 37205 ft 534 kts 98°
2026-02-21 05:55 43.30630 84.77857 37195 ft 536 kts 98°
2026-02-21 05:55 43.29636 84.88014 37204 ft 536 kts 98°
2026-02-21 05:56 43.28623 84.98151 37192 ft 535 kts 98°
2026-02-21 05:56 43.27625 85.08148 37204 ft 535 kts 98°
2026-02-21 05:57 43.26610 85.18280 37166 ft 535 kts 98°
2026-02-21 05:57 43.25579 85.28394 37148 ft 533 kts 98°
2026-02-21 05:58 43.24541 85.38471 37192 ft 534 kts 98°
2026-02-21 05:58 43.23500 85.48494 37162 ft 535 kts 98°
2026-02-21 05:59 43.22442 85.58596 37176 ft 535 kts 98°
2026-02-21 05:59 43.21376 85.68730 37164 ft 537 kts 98°
2026-02-21 06:00 43.20295 85.78869 37144 ft 538 kts 98°
2026-02-21 06:00 43.19221 85.89012 37099 ft 535 kts 96°
2026-02-21 06:01 43.19155 85.94078 37118 ft 530 kts 81°
2026-02-21 06:01 43.19867 85.98987 37116 ft 522 kts 69°
2026-02-21 06:01 43.21131 86.03416 37140 ft 520 kts 58°
2026-02-21 06:01 43.23042 86.07604 37164 ft 518 kts 49°
2026-02-21 06:02 43.27244 86.15721 37113 ft 521 kts 51°
2026-02-21 06:02 43.31226 86.23937 37093 ft 515 kts 51°
2026-02-21 06:03 43.35198 86.32147 37108 ft 516 kts 51°
2026-02-21 06:03 43.39190 86.40388 37109 ft 519 kts 51°
2026-02-21 06:04 43.43182 86.48652 37047 ft 518 kts 51°
2026-02-21 06:04 43.47182 86.56900 37076 ft 519 kts 50°
2026-02-21 06:05 43.51191 86.65159 37045 ft 517 kts 50°
2026-02-21 06:05 43.55131 86.73318 37091 ft 513 kts 51°
2026-02-21 06:06 43.59048 86.81549 37132 ft 514 kts 51°
2026-02-21 06:06 43.63001 86.89894 37180 ft 522 kts 51°
2026-02-21 06:07 43.66966 86.98286 37211 ft 521 kts 51°
2026-02-21 06:07 43.70847 87.06523 37202 ft 516 kts 51°
2026-02-21 06:08 43.74761 87.14843 37270 ft 516 kts 51°
2026-02-21 06:08 43.78648 87.23175 37317 ft 515 kts 51°
2026-02-21 06:09 43.82503 87.31471 37348 ft 517 kts 51°
2026-02-21 06:09 43.86390 87.39856 37355 ft 517 kts 51°
2026-02-21 06:10 43.90283 87.48274 37348 ft 518 kts 51°
2026-02-21 06:10 43.94414 87.56391 37351 ft 513 kts 46°
2026-02-21 06:11 43.98764 87.64231 37351 ft 513 kts 45°
2026-02-21 06:11 44.03103 87.72100 37375 ft 514 kts 46°
2026-02-21 06:12 44.07415 87.80027 37349 ft 514 kts 46°
2026-02-21 06:12 44.11711 87.87960 37328 ft 513 kts 46°
2026-02-21 06:13 44.15778 87.96181 37342 ft 521 kts 56°
2026-02-21 06:13 44.18484 88.05427 37330 ft 531 kts 70°
2026-02-21 06:14 44.20042 88.15532 37338 ft 534 kts 75°
2026-02-21 06:14 44.21450 88.25713 37382 ft 534 kts 74°
2026-02-21 06:15 44.22901 88.35860 37357 ft 533 kts 74°
2026-02-21 06:15 44.24390 88.45986 37356 ft 532 kts 73°
2026-02-21 06:16 44.25879 88.56097 37375 ft 532 kts 73°
2026-02-21 06:16 44.27346 88.66157 37386 ft 532 kts 73°
2026-02-21 06:17 44.28807 88.76265 37390 ft 531 kts 73°
2026-02-21 06:17 44.30260 88.86389 37430 ft 531 kts 73°
2026-02-21 06:18 44.31704 88.96513 37426 ft 531 kts 73°
2026-02-21 06:18 44.33122 89.06519 37420 ft 532 kts 73°
2026-02-21 06:19 44.34548 89.16659 37427 ft 532 kts 73°
2026-02-21 06:19 44.35958 89.26741 37454 ft 533 kts 73°
2026-02-21 06:20 44.37373 89.36938 37429 ft 534 kts 73°
2026-02-21 06:20 44.38779 89.47133 37441 ft 534 kts 74°
2026-02-21 06:21 44.40176 89.57329 37447 ft 534 kts 74°
2026-02-21 06:21 44.41018 89.67681 37438 ft 542 kts 88°
2026-02-21 06:22 44.40064 89.78089 37445 ft 547 kts 104°
2026-02-21 06:22 44.37829 89.88247 37450 ft 547 kts 107°
2026-02-21 06:23 44.35499 89.98368 37435 ft 547 kts 107°
2026-02-21 06:23 44.33259 90.08384 37448 ft 548 kts 106°
2026-02-21 06:24 44.31024 90.18557 37450 ft 548 kts 106°
2026-02-21 06:24 44.28785 90.28726 37442 ft 548 kts 106°
2026-02-21 06:25 44.26529 90.38893 37477 ft 548 kts 106°
2026-02-21 06:25 44.24256 90.49069 37452 ft 549 kts 106°
2026-02-21 06:26 44.21973 90.59247 37406 ft 550 kts 107°
2026-02-21 06:26 44.19683 90.69405 37431 ft 550 kts 107°
2026-02-21 06:27 44.17381 90.79571 37453 ft 550 kts 107°
2026-02-21 06:27 44.15065 90.89753 37442 ft 552 kts 107°
2026-02-21 06:28 44.12738 90.99943 37414 ft 552 kts 107°
2026-02-21 06:28 44.10446 91.09944 37401 ft 553 kts 107°
2026-02-21 06:29 44.08112 91.20130 37404 ft 553 kts 107°
2026-02-21 06:29 44.05767 91.30332 37378 ft 553 kts 107°
2026-02-21 06:30 44.03416 91.40507 37370 ft 553 kts 107°
2026-02-21 06:30 44.01040 91.50659 37340 ft 552 kts 107°
2026-02-21 06:31 43.98638 91.60773 37364 ft 551 kts 108°
2026-02-21 06:31 43.96634 91.69178 37354 ft 551 kts 108°
2026-02-21 06:32 43.94220 91.79282 37349 ft 551 kts 108°
2026-02-21 06:32 43.91801 91.89379 37355 ft 551 kts 108°
2026-02-21 06:33 43.89368 91.99485 37357 ft 554 kts 108°
2026-02-21 06:33 43.86964 92.09427 37338 ft 554 kts 108°
2026-02-21 06:34 43.84503 92.19553 37340 ft 555 kts 108°
2026-02-21 06:34 43.82032 92.29679 37363 ft 555 kts 108°
2026-02-21 06:35 43.79548 92.39813 37318 ft 556 kts 108°
2026-02-21 06:35 43.77052 92.49953 37327 ft 557 kts 108°
2026-02-21 06:36 43.74544 92.60097 37320 ft 557 kts 108°
2026-02-21 06:36 43.72022 92.70248 37342 ft 558 kts 108°
2026-02-21 06:37 43.69488 92.80411 37308 ft 559 kts 108°
2026-02-21 06:37 43.66958 92.90516 37308 ft 560 kts 108°
2026-02-21 06:38 43.64433 93.00569 37307 ft 560 kts 108°
2026-02-21 06:38 43.61967 93.10775 37315 ft 561 kts 107°
2026-02-21 06:39 43.59552 93.20970 37314 ft 562 kts 107°
2026-02-21 06:39 43.57102 93.31220 37304 ft 563 kts 106°
2026-02-21 06:40 43.54627 93.41466 37307 ft 563 kts 107°
2026-02-21 06:40 43.52136 93.51703 37295 ft 564 kts 107°
2026-02-21 06:41 43.49634 93.61948 37288 ft 564 kts 107°
2026-02-21 06:41 43.47126 93.72175 37287 ft 564 kts 107°
2026-02-21 06:42 43.44610 93.82390 37268 ft 563 kts 107°
2026-02-21 06:42 43.42086 93.92593 37273 ft 563 kts 107°
2026-02-21 06:43 43.39598 94.02613 37245 ft 562 kts 107°
2026-02-21 06:43 43.37062 94.12767 37238 ft 561 kts 107°
2026-02-21 06:44 43.34519 94.22906 37221 ft 561 kts 107°
2026-02-21 06:44 43.31965 94.33055 37233 ft 563 kts 107°
2026-02-21 06:45 43.29394 94.43229 37248 ft 565 kts 107°
2026-02-21 06:45 43.26803 94.53431 37249 ft 567 kts 107°
2026-02-21 06:46 43.24197 94.63647 37268 ft 568 kts 107°
2026-02-21 06:46 43.21597 94.73798 37310 ft 568 kts 107°
2026-02-21 06:47 43.18967 94.84023 37315 ft 568 kts 107°
2026-02-21 06:47 43.16333 94.94226 37342 ft 568 kts 108°
2026-02-21 06:48 43.13383 95.04078 37349 ft 567 kts 121°
2026-02-21 06:48 43.11139 95.08488 37360 ft 563 kts 132°
2026-02-21 06:48 43.08479 95.12387 37365 ft 559 kts 142°
2026-02-21 06:49 43.02259 95.18526 37374 ft 550 kts 153°
2026-02-21 06:49 42.95843 95.24253 37377 ft 554 kts 152°
2026-02-21 06:50 42.89462 95.30073 37319 ft 557 kts 152°
2026-02-21 06:50 42.83055 95.36011 37374 ft 558 kts 152°
2026-02-21 06:51 42.76627 95.41967 37355 ft 558 kts 152°
2026-02-21 06:51 42.70195 95.47898 37348 ft 558 kts 152°
2026-02-21 06:52 42.63766 95.53804 37352 ft 557 kts 152°
2026-02-21 06:52 42.57336 95.59696 37342 ft 557 kts 152°
2026-02-21 06:53 42.50910 95.65571 37359 ft 557 kts 152°
2026-02-21 06:53 42.44508 95.71466 37363 ft 557 kts 146°
2026-02-21 06:54 42.41723 95.75159 37346 ft 565 kts 128°
2026-02-21 06:54 42.39733 95.79647 37375 ft 565 kts 112°
2026-02-21 06:54 42.38495 95.84679 37359 ft 561 kts 96°
2026-02-21 06:54 42.38171 95.89863 37386 ft 548 kts 84°
2026-02-21 06:55 42.38072 96.00166 37386 ft 554 kts 84°
2026-02-21 06:55 42.37888 96.10594 37395 ft 560 kts 85°
2026-02-21 06:56 42.37599 96.21154 37377 ft 563 kts 86°
2026-02-21 06:56 42.37268 96.31735 37375 ft 563 kts 86°
2026-02-21 06:57 42.36933 96.42295 37374 ft 561 kts 86°
2026-02-21 06:57 42.36598 96.52809 37383 ft 560 kts 86°
2026-02-21 06:58 42.36088 96.68490 37366 ft 558 kts 86°
2026-02-21 06:59 42.35735 96.78972 37358 ft 557 kts 86°
2026-02-21 06:59 42.35371 96.89448 37363 ft 558 kts 86°
2026-02-21 07:00 42.34998 96.99939 37342 ft 559 kts 86°
2026-02-21 07:00 42.34618 97.10326 37342 ft 560 kts 86°
2026-02-21 07:01 42.34223 97.20850 37329 ft 560 kts 86°
2026-02-21 07:01 42.33822 97.31297 37310 ft 561 kts 87°
2026-02-21 07:02 42.33408 97.41826 37321 ft 561 kts 87°
2026-02-21 07:02 42.32984 97.52363 37326 ft 561 kts 87°
2026-02-21 07:03 42.32550 97.62901 37324 ft 562 kts 87°
2026-02-21 07:03 42.32106 97.73454 37321 ft 562 kts 87°
2026-02-21 07:04 42.31653 97.83999 37305 ft 562 kts 87°
2026-02-21 07:04 42.31189 97.94552 37309 ft 562 kts 88°
2026-02-21 07:05 42.30722 98.04982 37311 ft 564 kts 88°
2026-02-21 07:05 42.30238 98.15550 37304 ft 564 kts 88°
2026-02-21 07:06 42.29749 98.26055 37304 ft 564 kts 88°
2026-02-21 07:06 42.29240 98.36637 37312 ft 564 kts 88°
2026-02-21 07:07 42.28696 98.47208 37287 ft 564 kts 88°
2026-02-21 07:07 42.28138 98.57773 37291 ft 564 kts 88°
2026-02-21 07:08 42.27575 98.68338 37272 ft 564 kts 88°
2026-02-21 07:08 42.27005 98.78908 37282 ft 563 kts 89°
2026-02-21 07:09 42.26430 98.89385 37269 ft 563 kts 89°
2026-02-21 07:09 42.25842 98.99928 37252 ft 563 kts 89°
2026-02-21 07:10 42.25250 99.10348 37327 ft 563 kts 89°
2026-02-21 07:10 42.24641 99.20913 37249 ft 565 kts 89°
2026-02-21 07:11 42.24021 99.31488 37251 ft 565 kts 89°
2026-02-21 07:11 42.23397 99.41974 37235 ft 565 kts 89°
2026-02-21 07:12 42.22758 99.52546 37246 ft 565 kts 90°
2026-02-21 07:12 42.22109 99.63113 37239 ft 565 kts 90°
2026-02-21 07:13 42.21450 99.73689 37230 ft 565 kts 90°
2026-02-21 07:13 42.20783 99.84246 37255 ft 565 kts 90°
2026-02-21 07:14 42.20105 99.94807 37229 ft 565 kts 90°
2026-02-21 07:14 42.19431 100.05167 37227 ft 565 kts 90°
2026-02-21 07:15 42.18734 100.15720 37218 ft 565 kts 90°
2026-02-21 07:15 42.18027 100.26270 37230 ft 565 kts 90°
2026-02-21 07:16 42.17311 100.36832 37215 ft 565 kts 90°
2026-02-21 07:16 42.16584 100.47387 37204 ft 565 kts 90°
2026-02-21 07:17 42.15849 100.57931 37234 ft 565 kts 90°
2026-02-21 07:17 42.15107 100.68423 37203 ft 566 kts 90°
2026-02-21 07:18 42.14351 100.78995 37187 ft 567 kts 90°
2026-02-21 07:18 42.13584 100.89574 37181 ft 567 kts 90°
2026-02-21 07:19 42.12769 101.00111 37183 ft 569 kts 94°
2026-02-21 07:19 42.11051 101.10413 37238 ft 578 kts 106°
2026-02-21 07:19 42.09712 101.15535 37544 ft 578 kts 108°
2026-02-21 07:20 42.08336 101.20611 38030 ft 575 kts 108°
2026-02-21 07:20 42.06966 101.25644 38550 ft 570 kts 108°
2026-02-21 07:20 42.05614 101.30646 39030 ft 567 kts 109°
2026-02-21 07:20 42.04279 101.35641 39198 ft 567 kts 108°
2026-02-21 07:21 42.02945 101.40674 39161 ft 571 kts 108°
2026-02-21 07:21 42.00319 101.50638 39153 ft 567 kts 108°
2026-02-21 07:22 41.97689 101.60578 39139 ft 564 kts 108°
2026-02-21 07:22 41.95048 101.70500 39162 ft 563 kts 108°
2026-02-21 07:23 41.92401 101.80389 39143 ft 563 kts 109°
2026-02-21 07:23 41.89740 101.90294 39133 ft 565 kts 109°
2026-02-21 07:24 41.87079 102.00158 39139 ft 566 kts 109°
2026-02-21 07:24 41.84398 102.10060 39135 ft 569 kts 109°
2026-02-21 07:25 41.81683 102.20045 39121 ft 571 kts 109°
2026-02-21 07:25 41.78971 102.29981 39119 ft 572 kts 109°
2026-02-21 07:26 41.76228 102.39988 39101 ft 572 kts 109°
2026-02-21 07:26 41.73941 102.48299 39094 ft 572 kts 109°
2026-02-21 07:27 41.71166 102.58353 39063 ft 571 kts 109°
2026-02-21 07:27 41.68406 102.68318 39080 ft 571 kts 109°
2026-02-21 07:28 41.65654 102.78199 39089 ft 571 kts 109°
2026-02-21 07:28 41.62869 102.88157 39083 ft 571 kts 109°
2026-02-21 07:29 41.60084 102.98088 39067 ft 571 kts 109°
2026-02-21 07:29 41.57316 103.07891 39070 ft 570 kts 109°
2026-02-21 07:30 41.54502 103.17793 39068 ft 570 kts 109°
2026-02-21 07:30 41.51701 103.27616 39057 ft 570 kts 109°
2026-02-21 07:31 41.48879 103.37482 39062 ft 569 kts 109°
2026-02-21 07:31 41.46048 103.47347 39057 ft 569 kts 109°
2026-02-21 07:32 41.43215 103.57183 39065 ft 568 kts 109°
2026-02-21 07:32 41.42255 103.60506 39057 ft 568 kts 109°
2026-02-21 07:33 41.41794 103.62101 39055 ft 568 kts 109°
2026-02-21 07:33 41.34667 103.86618 39036 ft 566 kts 110°
2026-02-21 07:34 41.31810 103.96384 39050 ft 565 kts 110°
2026-02-21 07:34 41.28988 104.05996 39053 ft 564 kts 110°
2026-02-21 07:35 41.26125 104.15709 39054 ft 564 kts 110°
2026-02-21 07:35 41.23276 104.25340 39065 ft 564 kts 111°
2026-02-21 07:36 41.20397 104.35036 39062 ft 564 kts 111°
2026-02-21 07:36 41.17510 104.44722 39051 ft 564 kts 111°
2026-02-21 07:37 41.14612 104.54412 39038 ft 564 kts 111°
2026-02-21 07:37 41.11705 104.64103 39040 ft 564 kts 111°
2026-02-21 07:38 41.08766 104.73754 39037 ft 565 kts 112°
2026-02-21 07:38 41.05574 104.83266 39032 ft 565 kts 114°
2026-02-21 07:39 41.02315 104.92665 39038 ft 565 kts 115°
2026-02-21 07:39 40.99106 105.02008 39005 ft 563 kts 114°
2026-02-21 07:40 40.95891 105.11452 39014 ft 561 kts 114°
2026-02-21 07:40 40.92687 105.20859 39022 ft 560 kts 114°
2026-02-21 07:41 40.89477 105.30240 39011 ft 559 kts 115°
2026-02-21 07:41 40.86283 105.39531 39013 ft 558 kts 115°
2026-02-21 07:42 40.83069 105.48850 39009 ft 557 kts 115°
2026-02-21 07:42 40.79848 105.58159 39003 ft 556 kts 115°
2026-02-21 07:43 40.76629 105.67436 38986 ft 555 kts 116°
2026-02-21 07:43 40.74500 105.73555 38988 ft 553 kts 116°
2026-02-21 07:44 40.73958 105.75109 38986 ft 553 kts 116°
2026-02-21 07:44 40.67023 105.94925 38977 ft 548 kts 117°
2026-02-21 07:45 40.63861 106.03920 38948 ft 547 kts 117°
2026-02-21 07:45 40.60657 106.13001 38964 ft 548 kts 117°
2026-02-21 07:46 40.57433 106.22109 38961 ft 549 kts 117°
2026-02-21 07:46 40.54200 106.31217 38972 ft 550 kts 117°
2026-02-21 07:47 40.50947 106.40342 38948 ft 553 kts 117°
2026-02-21 07:47 40.47671 106.49522 38949 ft 555 kts 117°
2026-02-21 07:48 40.44399 106.58656 38946 ft 557 kts 117°
2026-02-21 07:48 40.41089 106.67858 38938 ft 558 kts 117°
2026-02-21 07:49 40.37773 106.77059 38933 ft 558 kts 117°
2026-02-21 07:49 40.34450 106.86245 38925 ft 556 kts 117°
2026-02-21 07:50 40.31992 106.95819 38917 ft 556 kts 98°
2026-02-21 07:50 40.31762 107.05745 38878 ft 550 kts 79°
2026-02-21 07:51 40.33062 107.15596 38916 ft 548 kts 77°
2026-02-21 07:51 40.34411 107.25371 38908 ft 549 kts 78°
2026-02-21 07:52 40.35674 107.35263 38903 ft 550 kts 79°
2026-02-21 07:52 40.36884 107.45189 38903 ft 552 kts 79°
2026-02-21 07:53 40.38087 107.55143 38900 ft 553 kts 79°
2026-02-21 07:53 40.39290 107.65103 38895 ft 554 kts 79°
2026-02-21 07:54 40.40490 107.75099 38922 ft 555 kts 79°
2026-02-21 07:54 40.41685 107.85119 38897 ft 556 kts 80°
2026-02-21 07:55 40.42873 107.95156 38889 ft 557 kts 80°
2026-02-21 07:55 40.44031 108.05076 38883 ft 557 kts 80°
2026-02-21 07:56 40.45179 108.15061 38883 ft 557 kts 80°
2026-02-21 07:56 40.46325 108.25118 38875 ft 556 kts 80°
2026-02-21 07:57 40.47464 108.35168 38879 ft 556 kts 80°
2026-02-21 07:57 40.48595 108.45218 38873 ft 556 kts 81°
2026-02-21 07:58 40.49718 108.55283 38887 ft 557 kts 81°
2026-02-21 07:58 40.50834 108.65369 38874 ft 558 kts 81°
2026-02-21 07:59 40.51933 108.75387 38866 ft 558 kts 81°
2026-02-21 07:59 40.53034 108.85493 38852 ft 559 kts 81°
2026-02-21 08:00 40.54127 108.95630 38866 ft 560 kts 81°
2026-02-21 08:00 40.55200 109.05650 38849 ft 561 kts 81°
2026-02-21 08:01 40.56280 109.15827 38826 ft 562 kts 82°
2026-02-21 08:01 40.57352 109.26022 38869 ft 563 kts 82°
2026-02-21 08:02 40.58418 109.36240 38852 ft 564 kts 82°
2026-02-21 08:02 40.59469 109.46406 38824 ft 564 kts 82°
2026-02-21 08:03 40.61038 109.61745 38850 ft 563 kts 82°
2026-02-21 08:03 40.62070 109.71955 38838 ft 563 kts 82°
2026-02-21 08:04 40.63093 109.82169 38837 ft 563 kts 82°
2026-02-21 08:04 40.64109 109.92389 38834 ft 563 kts 83°
2026-02-21 08:05 40.64798 110.02516 38825 ft 562 kts 91°
2026-02-21 08:05 40.64709 110.12807 38819 ft 562 kts 92°
2026-02-21 08:06 40.64567 110.23041 38801 ft 563 kts 92°
2026-02-21 08:06 40.64490 110.33333 38820 ft 563 kts 92°
2026-02-21 08:07 40.64422 110.43649 38805 ft 564 kts 92°
2026-02-21 08:07 40.64335 110.53992 38802 ft 565 kts 92°
2026-02-21 08:08 40.64238 110.64367 38791 ft 566 kts 92°
2026-02-21 08:08 40.64135 110.74734 38792 ft 566 kts 92°
2026-02-21 08:09 40.64025 110.85102 38782 ft 566 kts 92°
2026-02-21 08:09 40.63901 110.95413 38767 ft 567 kts 92°
2026-02-21 08:10 40.63771 111.05660 38762 ft 568 kts 92°
2026-02-21 08:10 40.63632 111.16073 38778 ft 569 kts 92°
2026-02-21 08:11 40.63608 111.17834 38763 ft 570 kts 92°
2026-02-21 08:11 40.63325 111.36946 38749 ft 571 kts 92°
2026-02-21 08:12 40.63158 111.47393 38731 ft 571 kts 92°
2026-02-21 08:12 40.62981 111.57851 38728 ft 571 kts 92°
2026-02-21 08:13 40.62797 111.68233 38726 ft 571 kts 93°
2026-02-21 08:13 40.62602 111.78684 38730 ft 571 kts 93°
2026-02-21 08:14 40.62398 111.89146 38715 ft 572 kts 92°
2026-02-21 08:14 40.62266 111.99630 38714 ft 573 kts 93°
2026-02-21 08:15 40.61953 112.09976 38704 ft 574 kts 94°
2026-02-21 08:15 40.61705 112.20496 38684 ft 576 kts 92°
2026-02-21 08:16 40.61471 112.30998 38721 ft 578 kts 92°
2026-02-21 08:16 40.61209 112.41608 38694 ft 580 kts 93°
2026-02-21 08:17 40.60932 112.52214 38686 ft 579 kts 93°
2026-02-21 08:17 40.60468 112.61008 38666 ft 579 kts 96°
2026-02-21 08:18 40.59679 112.73280 38662 ft 579 kts 95°
2026-02-21 08:18 40.58865 112.83811 38667 ft 579 kts 97°
2026-02-21 08:19 40.58222 112.92647 38653 ft 579 kts 96°
2026-02-21 08:19 40.57560 113.02998 38643 ft 579 kts 95°
2026-02-21 08:20 40.56874 113.13560 38582 ft 578 kts 96°
2026-02-21 08:20 40.56157 113.24065 38614 ft 575 kts 96°
2026-02-21 08:21 40.55425 113.34504 38617 ft 572 kts 96°
2026-02-21 08:21 40.54693 113.44837 38592 ft 570 kts 97°
2026-02-21 08:22 40.53952 113.55196 38599 ft 568 kts 97°
2026-02-21 08:22 40.53204 113.65507 38614 ft 566 kts 97°
2026-02-21 08:24 40.50540 114.01402 38576 ft 564 kts 96°
2026-02-21 08:25 40.50045 114.11634 38557 ft 565 kts 93°
2026-02-21 08:25 40.49691 114.21985 38562 ft 568 kts 93°
2026-02-21 08:26 40.49287 114.32369 38557 ft 570 kts 94°
2026-02-21 08:26 40.48823 114.42801 38528 ft 571 kts 95°
2026-02-21 08:27 40.48339 114.53220 38525 ft 571 kts 95°
2026-02-21 08:27 40.47850 114.63634 38538 ft 570 kts 95°
2026-02-21 08:28 40.47522 114.70513 38507 ft 568 kts 95°
2026-02-21 08:30 40.45322 115.15005 38486 ft 563 kts 96°
2026-02-21 08:30 40.44790 115.25268 38489 ft 563 kts 96°
2026-02-21 08:31 40.44249 115.35507 38481 ft 563 kts 97°
2026-02-21 08:31 40.43699 115.45777 38468 ft 564 kts 97°
2026-02-21 08:32 40.43138 115.56070 38464 ft 566 kts 97°
2026-02-21 08:32 40.42294 115.71498 38445 ft 569 kts 96°
2026-02-21 08:33 40.42198 115.73255 38433 ft 570 kts 96°
2026-02-21 08:35 40.39867 116.16618 38450 ft 545 kts 96°
2026-02-21 08:35 40.39601 116.21592 38460 ft 547 kts 96°
2026-02-21 08:35 40.39061 116.31586 38454 ft 551 kts 94°
2026-02-21 08:36 40.38520 116.41563 38460 ft 552 kts 94°
2026-02-21 08:36 40.37976 116.51614 38464 ft 553 kts 94°
2026-02-21 08:37 40.37432 116.61638 38448 ft 544 kts 95°
2026-02-21 08:37 40.36905 116.71396 38457 ft 531 kts 95°
2026-02-21 08:38 40.36384 116.81054 38458 ft 531 kts 95°
2026-02-21 08:38 40.35863 116.90725 38450 ft 532 kts 95°
2026-02-21 08:39 40.35350 117.00255 38482 ft 534 kts 95°
2026-02-21 08:39 40.34825 117.09989 38465 ft 536 kts 94°
2026-02-21 08:40 40.34298 117.19759 38420 ft 538 kts 95°
2026-02-21 08:40 40.33774 117.29531 38424 ft 536 kts 95°
2026-02-21 08:41 40.33268 117.39237 38443 ft 533 kts 95°
2026-02-21 08:41 40.32753 117.48950 38429 ft 538 kts 95°
2026-02-21 08:42 40.32231 117.58857 38432 ft 551 kts 95°
2026-02-21 08:42 40.31700 117.68862 38441 ft 558 kts 95°
2026-02-21 08:43 40.31153 117.79051 38449 ft 562 kts 95°
2026-02-21 08:43 40.30603 117.89292 38441 ft 564 kts 95°
2026-02-21 08:44 40.30052 117.99529 38438 ft 560 kts 95°